Observation data for Tarzan on 02/17/2017      Previous  Date  Next       Current Mesonet Observations  Soil Data  Daily Summary Page  Observations in Plain Language
KTA1 170601Z 19008KT 07/02 A2989 RMK A01 T00660019  RH  072%=      5-min Rain = 0
KTA1 170602Z 19008KT 07/02 A2989 RMK A01 T00650018  RH  072%=      5-min Rain = 0
KTA1 170603Z 18008KT 07/02 A2989 RMK A01 T00660019  RH  072%=      5-min Rain = 0
KTA1 170604Z 19009KT 07/02 A2989 RMK A01 T00660019  RH  072%=      5-min Rain = 0
KTA1 170605Z 19008KT 07/02 A2989 RMK A01 T00660019  RH  072%=      5-min Rain = 0
KTA1 170606Z 19009KT 07/02 A2989 RMK A01 T00650019  RH  072%=      5-min Rain = 0
KTA1 170607Z 19009KT 07/02 A2989 RMK A01 T00660018  RH  072%=      5-min Rain = 0
KTA1 170608Z 19009KT 07/02 A2989 RMK A01 T00660018  RH  071%=      5-min Rain = 0
KTA1 170609Z 19010KT 07/02 A2989 RMK A01 T00670018  RH  071%=      5-min Rain = 0
KTA1 170610Z 19010KT 07/02 A2989 RMK A01 T00680018  RH  071%=      5-min Rain = 0
KTA1 170611Z 19009KT 07/02 A2989 RMK A01 T00690018  RH  070%=      5-min Rain = 0
KTA1 170612Z 19009KT 07/02 A2989 RMK A01 T00690018  RH  070%=      5-min Rain = 0
KTA1 170613Z 18010KT 07/02 A2989 RMK A01 T00700018  RH  070%=      5-min Rain = 0
KTA1 170614Z 19010KT 07/02 A2989 RMK A01 T00700019  RH  070%=      5-min Rain = 0
KTA1 170615Z 19010KT 07/02 A2989 RMK A01 T00700019  RH  070%=      5-min Rain = 0
KTA1 170616Z 19009KT 07/02 A2989 RMK A01 T00700019  RH  070%=      5-min Rain = 0
KTA1 170617Z 18009KT 07/02 A2989 RMK A01 T00700019  RH  070%=      5-min Rain = 0
KTA1 170618Z 18009KT 07/02 A2989 RMK A01 T00700019  RH  070%=      5-min Rain = 0
KTA1 170619Z 18009KT 07/02 A2989 RMK A01 T00700019  RH  070%=      5-min Rain = 0
KTA1 170620Z 18009KT 07/02 A2989 RMK A01 T00700019  RH  070%=      5-min Rain = 0
KTA1 170621Z 18009KT 07/02 A2989 RMK A01 T00700019  RH  070%=      5-min Rain = 0
KTA1 170622Z 18009KT 07/02 A2989 RMK A01 T00700020  RH  070%=      5-min Rain = 0
KTA1 170623Z 19008KT 07/02 A2989 RMK A01 T00700020  RH  070%=      5-min Rain = 0
KTA1 170624Z 19008KT 07/02 A2989 RMK A01 T00690020  RH  071%=      5-min Rain = 0
KTA1 170625Z 19008KT 07/02 A2989 RMK A01 T00690020  RH  071%=      5-min Rain = 0
KTA1 170626Z 19008KT 07/02 A2989 RMK A01 T00680020  RH  072%=      5-min Rain = 0
KTA1 170627Z 19008KT 07/02 A2989 RMK A01 T00670020  RH  072%=      5-min Rain = 0
KTA1 170628Z 19008KT 07/02 A2989 RMK A01 T00670020  RH  072%=      5-min Rain = 0
KTA1 170629Z 19008KT 07/02 A2988 RMK A01 T00670020  RH  072%=      5-min Rain = 0
KTA1 170630Z 19008KT 07/02 A2988 RMK A01 T00670021  RH  072%=      5-min Rain = 0
KTA1 170631Z 20007KT 07/02 A2988 RMK A01 T00670021  RH  072%=      5-min Rain = 0
KTA1 170632Z 20007KT 07/02 A2988 RMK A01 T00660021  RH  073%=      5-min Rain = 0
KTA1 170633Z 20007KT 07/02 A2988 RMK A01 T00660021  RH  073%=      5-min Rain = 0
KTA1 170634Z 20007KT 07/02 A2988 RMK A01 T00650021  RH  073%=      5-min Rain = 0
KTA1 170635Z 20007KT 07/02 A2988 RMK A01 T00650021  RH  074%=      5-min Rain = 0
KTA1 170636Z 20007KT 06/02 A2988 RMK A01 T00640021  RH  074%=      5-min Rain = 0
KTA1 170637Z 20007KT 06/02 A2988 RMK A01 T00640021  RH  074%=      5-min Rain = 0
KTA1 170638Z 20007KT 06/02 A2988 RMK A01 T00630021  RH  074%=      5-min Rain = 0
KTA1 170639Z 20006KT 06/02 A2988 RMK A01 T00630021  RH  074%=      5-min Rain = 0
KTA1 170640Z 20006KT 06/02 A2988 RMK A01 T00630021  RH  075%=      5-min Rain = 0
KTA1 170641Z 20006KT 06/02 A2988 RMK A01 T00630021  RH  075%=      5-min Rain = 0
KTA1 170642Z 20006KT 06/02 A2988 RMK A01 T00630021  RH  075%=      5-min Rain = 0
KTA1 170643Z 19007KT 06/02 A2988 RMK A01 T00620021  RH  075%=      5-min Rain = 0
KTA1 170644Z 19006KT 06/02 A2988 RMK A01 T00620021  RH  075%=      5-min Rain = 0
KTA1 170645Z 19007KT 06/02 A2988 RMK A01 T00620021  RH  075%=      5-min Rain = 0
KTA1 170646Z 19006KT 06/02 A2988 RMK A01 T00610021  RH  075%=      5-min Rain = 0
KTA1 170647Z 19006KT 06/02 A2988 RMK A01 T00610021  RH  076%=      5-min Rain = 0
KTA1 170648Z 19006KT 06/02 A2988 RMK A01 T00600021  RH  076%=      5-min Rain = 0
KTA1 170649Z 19006KT 06/02 A2988 RMK A01 T00600021  RH  076%=      5-min Rain = 0
KTA1 170650Z 19006KT 06/02 A2988 RMK A01 T00590021  RH  076%=      5-min Rain = 0
KTA1 170651Z 19006KT 06/02 A2988 RMK A01 T00590021  RH  077%=      5-min Rain = 0
KTA1 170652Z 19006KT 06/02 A2988 RMK A01 T00580021  RH  077%=      5-min Rain = 0
KTA1 170653Z 19006KT 06/02 A2988 RMK A01 T00580021  RH  077%=      5-min Rain = 0
KTA1 170654Z 19006KT 06/02 A2988 RMK A01 T00580021  RH  077%=      5-min Rain = 0
KTA1 170655Z 19006KT 06/02 A2988 RMK A01 T00580021  RH  077%=      5-min Rain = 0
KTA1 170656Z 19006KT 06/02 A2988 RMK A01 T00580021  RH  077%=      5-min Rain = 0
KTA1 170657Z 19006KT 06/02 A2988 RMK A01 T00580021  RH  077%=      5-min Rain = 0
KTA1 170658Z 19006KT 06/02 A2988 RMK A01 T00580021  RH  077%=      5-min Rain = 0
KTA1 170659Z 19006KT 06/02 A2988 RMK A01 T00580021  RH  077%=      5-min Rain = 0
KTA1 170700Z 19006KT 06/02 A2988 RMK A01 T00580021  RH  077%=      5-min Rain = 0
KTA1 170701Z 19006KT 06/02 A2988 RMK A01 T00580021  RH  077%=      5-min Rain = 0
KTA1 170702Z 19007KT 06/02 A2988 RMK A01 T00580021  RH  077%=      5-min Rain = 0
KTA1 170703Z 20006KT 06/02 A2988 RMK A01 T00580022  RH  078%=      5-min Rain = 0
KTA1 170704Z 20007KT 06/02 A2988 RMK A01 T00580022  RH  077%=      5-min Rain = 0
KTA1 170705Z 20007KT 06/02 A2988 RMK A01 T00580022  RH  077%=      5-min Rain = 0
KTA1 170706Z 20007KT 06/02 A2988 RMK A01 T00580022  RH  077%=      5-min Rain = 0
KTA1 170707Z 20007KT 06/02 A2987 RMK A01 T00580022  RH  078%=      5-min Rain = 0
KTA1 170708Z 20007KT 06/02 A2987 RMK A01 T00580022  RH  078%=      5-min Rain = 0
KTA1 170709Z 20007KT 06/02 A2987 RMK A01 T00580022  RH  078%=      5-min Rain = 0
KTA1 170710Z 20007KT 06/02 A2987 RMK A01 T00580022  RH  078%=      5-min Rain = 0
KTA1 170711Z 20007KT 06/02 A2987 RMK A01 T00590023  RH  078%=      5-min Rain = 0
KTA1 170712Z 20007KT 06/02 A2987 RMK A01 T00590023  RH  078%=      5-min Rain = 0
KTA1 170713Z 20007KT 06/02 A2987 RMK A01 T00590023  RH  078%=      5-min Rain = 0
KTA1 170714Z 20008KT 06/02 A2987 RMK A01 T00600023  RH  078%=      5-min Rain = 0
KTA1 170715Z 20007KT 06/02 A2987 RMK A01 T00600024  RH  077%=      5-min Rain = 0
KTA1 170716Z 20007KT 06/02 A2987 RMK A01 T00600024  RH  077%=      5-min Rain = 0
KTA1 170717Z 20007KT 06/02 A2987 RMK A01 T00610024  RH  077%=      5-min Rain = 0
KTA1 170718Z 20008KT 06/02 A2987 RMK A01 T00610024  RH  077%=      5-min Rain = 0
KTA1 170719Z 20007KT 06/02 A2987 RMK A01 T00620024  RH  077%=      5-min Rain = 0
KTA1 170720Z 20007KT 06/03 A2987 RMK A01 T00620025  RH  077%=      5-min Rain = 0
KTA1 170721Z 20007KT 06/03 A2987 RMK A01 T00620025  RH  077%=      5-min Rain = 0
KTA1 170722Z 20007KT 06/03 A2987 RMK A01 T00620025  RH  077%=      5-min Rain = 0
KTA1 170723Z 20007KT 06/03 A2987 RMK A01 T00620025  RH  077%=      5-min Rain = 0
KTA1 170724Z 20007KT 06/03 A2987 RMK A01 T00620025  RH  078%=      5-min Rain = 0
KTA1 170725Z 20007KT 06/03 A2987 RMK A01 T00610025  RH  078%=      5-min Rain = 0
KTA1 170726Z 20008KT 06/03 A2987 RMK A01 T00610025  RH  078%=      5-min Rain = 0
KTA1 170727Z 20008KT 06/03 A2987 RMK A01 T00620025  RH  077%=      5-min Rain = 0
KTA1 170728Z 20008KT 06/03 A2987 RMK A01 T00630026  RH  077%=      5-min Rain = 0
KTA1 170729Z 20008KT 06/03 A2987 RMK A01 T00640026  RH  077%=      5-min Rain = 0
KTA1 170730Z 20008KT 06/03 A2987 RMK A01 T00640027  RH  077%=      5-min Rain = 0
KTA1 170731Z 20008KT 06/03 A2987 RMK A01 T00640026  RH  077%=      5-min Rain = 0
KTA1 170732Z 20008KT 06/03 A2987 RMK A01 T00640026  RH  077%=      5-min Rain = 0
KTA1 170733Z 19008KT 06/03 A2987 RMK A01 T00640027  RH  077%=      5-min Rain = 0
KTA1 170734Z 20007KT 06/03 A2987 RMK A01 T00640027  RH  077%=      5-min Rain = 0
KTA1 170735Z 19007KT 06/03 A2987 RMK A01 T00640027  RH  077%=      5-min Rain = 0
KTA1 170736Z 19008KT 06/03 A2987 RMK A01 T00640027  RH  077%=      5-min Rain = 0
KTA1 170737Z 19008KT 06/03 A2986 RMK A01 T00640027  RH  077%=      5-min Rain = 0
KTA1 170738Z 19008KT 06/03 A2986 RMK A01 T00640027  RH  077%=      5-min Rain = 0
KTA1 170739Z 19009KT 06/03 A2986 RMK A01 T00640027  RH  077%=      5-min Rain = 0
KTA1 170740Z 19009KT 06/03 A2986 RMK A01 T00640027  RH  078%=      5-min Rain = 0
KTA1 170741Z 19008KT 06/03 A2986 RMK A01 T00640028  RH  078%=      5-min Rain = 0
KTA1 170742Z 19008KT 06/03 A2986 RMK A01 T00640028  RH  078%=      5-min Rain = 0
KTA1 170743Z 20009KT 06/03 A2986 RMK A01 T00640028  RH  078%=      5-min Rain = 0
KTA1 170744Z 19009KT 07/03 A2986 RMK A01 T00650028  RH  078%=      5-min Rain = 0
KTA1 170745Z 19009KT 07/03 A2986 RMK A01 T00650029  RH  078%=      5-min Rain = 0
KTA1 170746Z 19009KT 07/03 A2986 RMK A01 T00660029  RH  078%=      5-min Rain = 0
KTA1 170747Z 19009KT 07/03 A2986 RMK A01 T00660030  RH  077%=      5-min Rain = 0
KTA1 170748Z 19010KT 07/03 A2986 RMK A01 T00660030  RH  077%=      5-min Rain = 0
KTA1 170749Z 19009KT 07/03 A2986 RMK A01 T00660030  RH  077%=      5-min Rain = 0
KTA1 170750Z 19009KT 07/03 A2986 RMK A01 T00660030  RH  078%=      5-min Rain = 0
KTA1 170751Z 19009KT 07/03 A2986 RMK A01 T00670030  RH  078%=      5-min Rain = 0
KTA1 170752Z 19009KT 07/03 A2986 RMK A01 T00670031  RH  078%=      5-min Rain = 0
KTA1 170753Z 18009KT 07/03 A2986 RMK A01 T00670031  RH  078%=      5-min Rain = 0
KTA1 170754Z 18009KT 07/03 A2986 RMK A01 T00670031  RH  078%=      5-min Rain = 0
KTA1 170755Z 18009KT 07/03 A2986 RMK A01 T00680031  RH  078%=      5-min Rain = 0
KTA1 170756Z 18009KT 07/03 A2986 RMK A01 T00680032  RH  078%=      5-min Rain = 0
KTA1 170757Z 18009KT 07/03 A2986 RMK A01 T00680032  RH  078%=      5-min Rain = 0
KTA1 170758Z 18009KT 07/03 A2986 RMK A01 T00690032  RH  078%=      5-min Rain = 0
KTA1 170759Z 18009KT 07/03 A2986 RMK A01 T00690033  RH  078%=      5-min Rain = 0
KTA1 170800Z 18009KT 07/03 A2986 RMK A01 T00690033  RH  078%=      5-min Rain = 0
KTA1 170801Z 18009KT 07/03 A2986 RMK A01 T00690033  RH  078%=      5-min Rain = 0
KTA1 170802Z 18008KT 07/03 A2986 RMK A01 T00690033  RH  078%=      5-min Rain = 0
KTA1 170803Z 18009KT 07/03 A2986 RMK A01 T00700033  RH  078%=      5-min Rain = 0
KTA1 170804Z 18008KT 07/03 A2986 RMK A01 T00700033  RH  078%=      5-min Rain = 0
KTA1 170805Z 18009KT 07/03 A2986 RMK A01 T00700033  RH  078%=      5-min Rain = 0
KTA1 170806Z 18008KT 07/03 A2986 RMK A01 T00690033  RH  078%=      5-min Rain = 0
KTA1 170807Z 18009KT 07/03 A2986 RMK A01 T00690034  RH  078%=      5-min Rain = 0
KTA1 170808Z 18009KT 07/03 A2986 RMK A01 T00690033  RH  078%=      5-min Rain = 0
KTA1 170809Z 18008KT 07/03 A2986 RMK A01 T00680033  RH  078%=      5-min Rain = 0
KTA1 170810Z 18008KT 07/03 A2986 RMK A01 T00680034  RH  078%=      5-min Rain = 0
KTA1 170811Z 18009KT 07/03 A2986 RMK A01 T00680034  RH  079%=      5-min Rain = 0
KTA1 170812Z 19009KT 07/03 A2986 RMK A01 T00680034  RH  078%=      5-min Rain = 0
KTA1 170813Z 19009KT 07/03 A2986 RMK A01 T00680033  RH  078%=      5-min Rain = 0
KTA1 170814Z 19008KT 07/03 A2986 RMK A01 T00680033  RH  079%=      5-min Rain = 0
KTA1 170815Z 19008KT 07/03 A2986 RMK A01 T00680034  RH  079%=      5-min Rain = 0
KTA1 170816Z 18010KT 07/03 A2986 RMK A01 T00680034  RH  079%=      5-min Rain = 0
KTA1 170817Z 18009KT 07/03 A2986 RMK A01 T00670034  RH  079%=      5-min Rain = 0
KTA1 170818Z 19010KT 07/04 A2985 RMK A01 T00680035  RH  079%=      5-min Rain = 0
KTA1 170819Z 18010KT 07/04 A2985 RMK A01 T00690036  RH  079%=      5-min Rain = 0
KTA1 170820Z 18012KT 07/04 A2985 RMK A01 T00710036  RH  079%=      5-min Rain = 0
KTA1 170821Z 19011KT 07/04 A2985 RMK A01 T00710036  RH  078%=      5-min Rain = 0
KTA1 170822Z 19010KT 07/04 A2985 RMK A01 T00720036  RH  078%=      5-min Rain = 0
KTA1 170823Z 19010KT 07/04 A2985 RMK A01 T00720036  RH  078%=      5-min Rain = 0
KTA1 170824Z 18010KT 07/04 A2985 RMK A01 T00720036  RH  078%=      5-min Rain = 0
KTA1 170825Z 19010KT 07/04 A2985 RMK A01 T00720036  RH  078%=      5-min Rain = 0
KTA1 170826Z 19010KT 07/04 A2985 RMK A01 T00710037  RH  079%=      5-min Rain = 0
KTA1 170827Z 19010KT 07/04 A2985 RMK A01 T00710036  RH  079%=      5-min Rain = 0
KTA1 170828Z 19010KT 07/04 A2985 RMK A01 T00710037  RH  079%=      5-min Rain = 0
KTA1 170829Z 19010KT 07/04 A2985 RMK A01 T00710037  RH  079%=      5-min Rain = 0
KTA1 170830Z 19010KT 07/04 A2985 RMK A01 T00710037  RH  079%=      5-min Rain = 0
KTA1 170831Z 19010KT 07/04 A2985 RMK A01 T00710038  RH  080%=      5-min Rain = 0
KTA1 170832Z 18011KT 07/04 A2985 RMK A01 T00710038  RH  080%=      5-min Rain = 0
KTA1 170833Z 18011KT 07/04 A2985 RMK A01 T00720038  RH  079%=      5-min Rain = 0
KTA1 170834Z 18011KT 07/04 A2985 RMK A01 T00720039  RH  079%=      5-min Rain = 0
KTA1 170835Z 18011KT 07/04 A2985 RMK A01 T00720039  RH  079%=      5-min Rain = 0
KTA1 170836Z 18011KT 07/04 A2985 RMK A01 T00720038  RH  079%=      5-min Rain = 0
KTA1 170837Z 18011KT 07/04 A2985 RMK A01 T00720038  RH  079%=      5-min Rain = 0
KTA1 170838Z 18011KT 07/04 A2985 RMK A01 T00720038  RH  079%=      5-min Rain = 0
KTA1 170839Z 18012KT 07/04 A2985 RMK A01 T00720038  RH  079%=      5-min Rain = 0
KTA1 170840Z 18011KT 07/04 A2984 RMK A01 T00730039  RH  079%=      5-min Rain = 0
KTA1 170841Z 18011KT 07/04 A2984 RMK A01 T00720038  RH  079%=      5-min Rain = 0
KTA1 170842Z 18011KT 07/04 A2984 RMK A01 T00720038  RH  079%=      5-min Rain = 0
KTA1 170843Z 18012KT 07/04 A2984 RMK A01 T00720038  RH  079%=      5-min Rain = 0
KTA1 170844Z 18011KT 07/04 A2984 RMK A01 T00720039  RH  079%=      5-min Rain = 0
KTA1 170845Z 18011KT 07/04 A2984 RMK A01 T00720039  RH  079%=      5-min Rain = 0
KTA1 170846Z 18012KT 07/04 A2984 RMK A01 T00730040  RH  079%=      5-min Rain = 0
KTA1 170847Z 18013KT 07/04 A2984 RMK A01 T00730039  RH  079%=      5-min Rain = 0
KTA1 170848Z 18012KT 07/04 A2984 RMK A01 T00730040  RH  079%=      5-min Rain = 0
KTA1 170849Z 18012KT 07/04 A2984 RMK A01 T00730040  RH  079%=      5-min Rain = 0
KTA1 170850Z 18012KT 07/04 A2984 RMK A01 T00740040  RH  079%=      5-min Rain = 0
KTA1 170851Z 19012KT 07/04 A2984 RMK A01 T00740040  RH  079%=      5-min Rain = 0
KTA1 170852Z 18012KT 07/04 A2984 RMK A01 T00740040  RH  079%=      5-min Rain = 0
KTA1 170853Z 18012KT 07/04 A2984 RMK A01 T00740040  RH  079%=      5-min Rain = 0
KTA1 170854Z 18011KT 07/04 A2984 RMK A01 T00740040  RH  079%=      5-min Rain = 0
KTA1 170855Z 18013KT 07/04 A2984 RMK A01 T00740040  RH  079%=      5-min Rain = 0
KTA1 170856Z 18012KT 07/04 A2984 RMK A01 T00740040  RH  079%=      5-min Rain = 0
KTA1 170857Z 18011KT 07/04 A2984 RMK A01 T00740040  RH  079%=      5-min Rain = 0
KTA1 170858Z 18011KT 07/04 A2984 RMK A01 T00730040  RH  080%=      5-min Rain = 0
KTA1 170859Z 18011KT 07/04 A2983 RMK A01 T00730040  RH  080%=      5-min Rain = 0
KTA1 170900Z 18010KT 07/04 A2983 RMK A01 T00720040  RH  080%=      5-min Rain = 0
KTA1 170901Z 18010KT 07/04 A2983 RMK A01 T00720040  RH  080%=      5-min Rain = 0
KTA1 170902Z 18011KT 07/04 A2983 RMK A01 T00710039  RH  080%=      5-min Rain = 0
KTA1 170903Z 18010KT 07/04 A2983 RMK A01 T00710040  RH  080%=      5-min Rain = 0
KTA1 170904Z 18011KT 07/04 A2983 RMK A01 T00710040  RH  080%=      5-min Rain = 0
KTA1 170905Z 18011KT 07/04 A2983 RMK A01 T00710040  RH  080%=      5-min Rain = 0
KTA1 170906Z 18011KT 07/04 A2983 RMK A01 T00710040  RH  080%=      5-min Rain = 0
KTA1 170907Z 18010KT 07/04 A2983 RMK A01 T00710040  RH  080%=      5-min Rain = 0
KTA1 170908Z 18012KT 07/04 A2983 RMK A01 T00710040  RH  081%=      5-min Rain = 0
KTA1 170909Z 18011KT 07/04 A2983 RMK A01 T00710040  RH  081%=      5-min Rain = 0
KTA1 170910Z 18011KT 07/04 A2983 RMK A01 T00710040  RH  081%=      5-min Rain = 0
KTA1 170911Z 18011KT 07/04 A2983 RMK A01 T00710040  RH  081%=      5-min Rain = 0
KTA1 170912Z 18010KT 07/04 A2983 RMK A01 T00710040  RH  081%=      5-min Rain = 0
KTA1 170913Z 17010KT 07/04 A2983 RMK A01 T00710040  RH  081%=      5-min Rain = 0
KTA1 170914Z 18010KT 07/04 A2983 RMK A01 T00710040  RH  081%=      5-min Rain = 0
KTA1 170915Z 18010KT 07/04 A2983 RMK A01 T00710040  RH  081%=      5-min Rain = 0
KTA1 170916Z 18010KT 07/04 A2983 RMK A01 T00710040  RH  081%=      5-min Rain = 0
KTA1 170917Z 18010KT 07/04 A2983 RMK A01 T00700040  RH  081%=      5-min Rain = 0
KTA1 170918Z 18009KT 07/04 A2983 RMK A01 T00700040  RH  081%=      5-min Rain = 0
KTA1 170919Z 18010KT 07/04 A2983 RMK A01 T00700040  RH  081%=      5-min Rain = 0
KTA1 170920Z 18010KT 07/04 A2983 RMK A01 T00700040  RH  081%=      5-min Rain = 0
KTA1 170921Z 18009KT 07/04 A2983 RMK A01 T00700040  RH  081%=      5-min Rain = 0
KTA1 170922Z 18010KT 07/04 A2983 RMK A01 T00700040  RH  081%=      5-min Rain = 0
KTA1 170923Z 18010KT 07/04 A2983 RMK A01 T00700040  RH  081%=      5-min Rain = 0
KTA1 170924Z 18010KT 07/04 A2983 RMK A01 T00700040  RH  081%=      5-min Rain = 0
KTA1 170925Z 18010KT 07/04 A2983 RMK A01 T00700040  RH  081%=      5-min Rain = 0
KTA1 170926Z 18010KT 07/04 A2983 RMK A01 T00700040  RH  081%=      5-min Rain = 0
KTA1 170927Z 18011KT 07/04 A2982 RMK A01 T00700040  RH  081%=      5-min Rain = 0
KTA1 170928Z 18010KT 07/04 A2982 RMK A01 T00700040  RH  081%=      5-min Rain = 0
KTA1 170929Z 18011KT 07/04 A2982 RMK A01 T00700040  RH  081%=      5-min Rain = 0
KTA1 170930Z 18010KT 07/04 A2982 RMK A01 T00700040  RH  081%=      5-min Rain = 0
KTA1 170931Z 18011KT 07/04 A2982 RMK A01 T00700039  RH  081%=      5-min Rain = 0
KTA1 170932Z 18010KT 07/04 A2982 RMK A01 T00700039  RH  081%=      5-min Rain = 0
KTA1 170933Z 18012KT 07/04 A2982 RMK A01 T00700040  RH  081%=      5-min Rain = 0
KTA1 170934Z 18010KT 07/04 A2982 RMK A01 T00700039  RH  081%=      5-min Rain = 0
KTA1 170935Z 18011KT 07/04 A2982 RMK A01 T00700039  RH  081%=      5-min Rain = 0
KTA1 170936Z 18011KT 07/04 A2982 RMK A01 T00700040  RH  081%=      5-min Rain = 0
KTA1 170937Z 18011KT 07/04 A2982 RMK A01 T00700039  RH  081%=      5-min Rain = 0
KTA1 170938Z 18012KT 07/04 A2982 RMK A01 T00700039  RH  081%=      5-min Rain = 0
KTA1 170939Z 18011KT 07/04 A2982 RMK A01 T00700039  RH  081%=      5-min Rain = 0
KTA1 170940Z 18010KT 07/04 A2982 RMK A01 T00700039  RH  081%=      5-min Rain = 0
KTA1 170941Z 18011KT 07/04 A2982 RMK A01 T00700039  RH  081%=      5-min Rain = 0
KTA1 170942Z 18010KT 07/04 A2982 RMK A01 T00690039  RH  081%=      5-min Rain = 0
KTA1 170943Z 18010KT 07/04 A2982 RMK A01 T00690039  RH  081%=      5-min Rain = 0
KTA1 170944Z 18010KT 07/04 A2982 RMK A01 T00680038  RH  081%=      5-min Rain = 0
KTA1 170945Z 18011KT 07/04 A2982 RMK A01 T00680038  RH  081%=      5-min Rain = 0
KTA1 170946Z 18009KT 07/04 A2982 RMK A01 T00680038  RH  081%=      5-min Rain = 0
KTA1 170947Z 18010KT 07/04 A2982 RMK A01 T00680038  RH  081%=      5-min Rain = 0
KTA1 170948Z 18011KT 07/04 A2982 RMK A01 T00680038  RH  081%=      5-min Rain = 0
KTA1 170949Z 18010KT 07/04 A2982 RMK A01 T00680038  RH  081%=      5-min Rain = 0
KTA1 170950Z 18010KT 07/04 A2982 RMK A01 T00680038  RH  081%=      5-min Rain = 0
KTA1 170951Z 18011KT 07/04 A2981 RMK A01 T00680038  RH  081%=      5-min Rain = 0
KTA1 170952Z 18010KT 07/04 A2981 RMK A01 T00680038  RH  081%=      5-min Rain = 0
KTA1 170953Z 18010KT 07/04 A2981 RMK A01 T00680038  RH  081%=      5-min Rain = 0
KTA1 170954Z 18009KT 07/04 A2981 RMK A01 T00670037  RH  081%=      5-min Rain = 0
KTA1 170955Z 18010KT 07/04 A2981 RMK A01 T00670037  RH  081%=      5-min Rain = 0
KTA1 170956Z 18010KT 07/04 A2981 RMK A01 T00670037  RH  081%=      5-min Rain = 0
KTA1 170957Z 18009KT 07/04 A2981 RMK A01 T00670037  RH  081%=      5-min Rain = 0
KTA1 170958Z 18009KT 07/04 A2981 RMK A01 T00670037  RH  081%=      5-min Rain = 0
KTA1 170959Z 18009KT 07/04 A2981 RMK A01 T00670037  RH  081%=      5-min Rain = 0
KTA1 171000Z 18010KT 07/04 A2981 RMK A01 T00670037  RH  081%=      5-min Rain = 0
KTA1 171001Z 18008KT 07/04 A2981 RMK A01 T00660037  RH  081%=      5-min Rain = 0
KTA1 171002Z 18009KT 07/04 A2981 RMK A01 T00660036  RH  081%=      5-min Rain = 0
KTA1 171003Z 18009KT 07/04 A2981 RMK A01 T00660037  RH  082%=      5-min Rain = 0
KTA1 171004Z 18009KT 07/04 A2981 RMK A01 T00660037  RH  082%=      5-min Rain = 0
KTA1 171005Z 18009KT 07/04 A2981 RMK A01 T00660037  RH  082%=      5-min Rain = 0
KTA1 171006Z 18009KT 07/04 A2981 RMK A01 T00650036  RH  082%=      5-min Rain = 0
KTA1 171007Z 18008KT 07/04 A2981 RMK A01 T00650036  RH  082%=      5-min Rain = 0
KTA1 171008Z 18008KT 07/04 A2981 RMK A01 T00650036  RH  082%=      5-min Rain = 0
KTA1 171009Z 18009KT 07/04 A2981 RMK A01 T00650036  RH  082%=      5-min Rain = 0
KTA1 171010Z 18008KT 06/04 A2981 RMK A01 T00640036  RH  082%=      5-min Rain = 0
KTA1 171011Z 18008KT 06/04 A2981 RMK A01 T00640036  RH  082%=      5-min Rain = 0
KTA1 171012Z 18008KT 06/04 A2981 RMK A01 T00640036  RH  082%=      5-min Rain = 0
KTA1 171013Z 18009KT 06/04 A2981 RMK A01 T00630036  RH  082%=      5-min Rain = 0
KTA1 171014Z 18008KT 06/04 A2981 RMK A01 T00630035  RH  082%=      5-min Rain = 0
KTA1 171015Z 17009KT 06/04 A2981 RMK A01 T00630035  RH  082%=      5-min Rain = 0
KTA1 171016Z 17009KT 06/04 A2981 RMK A01 T00630035  RH  082%=      5-min Rain = 0
KTA1 171017Z 17009KT 06/04 A2981 RMK A01 T00630035  RH  082%=      5-min Rain = 0
KTA1 171018Z 17008KT 06/04 A2981 RMK A01 T00630035  RH  082%=      5-min Rain = 0
KTA1 171019Z 17008KT 06/04 A2981 RMK A01 T00630035  RH  083%=      5-min Rain = 0
KTA1 171020Z 17008KT 06/04 A2981 RMK A01 T00620035  RH  083%=      5-min Rain = 0
KTA1 171021Z 17009KT 06/04 A2981 RMK A01 T00620035  RH  083%=      5-min Rain = 0
KTA1 171022Z 17008KT 06/04 A2981 RMK A01 T00610035  RH  083%=      5-min Rain = 0
KTA1 171023Z 17008KT 06/04 A2981 RMK A01 T00610035  RH  083%=      5-min Rain = 0
KTA1 171024Z 17008KT 06/04 A2981 RMK A01 T00610035  RH  083%=      5-min Rain = 0
KTA1 171025Z 17008KT 06/03 A2981 RMK A01 T00610034  RH  083%=      5-min Rain = 0
KTA1 171026Z 17008KT 06/03 A2981 RMK A01 T00610034  RH  083%=      5-min Rain = 0
KTA1 171027Z 17008KT 06/03 A2981 RMK A01 T00600034  RH  083%=      5-min Rain = 0
KTA1 171028Z 17008KT 06/03 A2981 RMK A01 T00600034  RH  083%=      5-min Rain = 0
KTA1 171029Z 17008KT 06/03 A2981 RMK A01 T00600034  RH  084%=      5-min Rain = 0
KTA1 171030Z 17008KT 06/03 A2981 RMK A01 T00600034  RH  084%=      5-min Rain = 0
KTA1 171031Z 17008KT 06/03 A2981 RMK A01 T00600034  RH  084%=      5-min Rain = 0
KTA1 171032Z 17008KT 06/03 A2981 RMK A01 T00600034  RH  084%=      5-min Rain = 0
KTA1 171033Z 17008KT 06/03 A2981 RMK A01 T00600034  RH  084%=      5-min Rain = 0
KTA1 171034Z 17008KT 06/03 A2981 RMK A01 T00600034  RH  084%=      5-min Rain = 0
KTA1 171035Z 17008KT 06/03 A2981 RMK A01 T00600034  RH  084%=      5-min Rain = 0
KTA1 171036Z 17008KT 06/03 A2981 RMK A01 T00600034  RH  084%=      5-min Rain = 0
KTA1 171037Z 17008KT 06/03 A2981 RMK A01 T00600034  RH  084%=      5-min Rain = 0
KTA1 171038Z 17008KT 06/03 A2981 RMK A01 T00590034  RH  084%=      5-min Rain = 0
KTA1 171039Z 17008KT 06/03 A2981 RMK A01 T00600034  RH  084%=      5-min Rain = 0
KTA1 171040Z 17008KT 06/03 A2981 RMK A01 T00590034  RH  084%=      5-min Rain = 0
KTA1 171041Z 17008KT 06/03 A2981 RMK A01 T00590034  RH  084%=      5-min Rain = 0
KTA1 171042Z 18008KT 06/03 A2981 RMK A01 T00590034  RH  084%=      5-min Rain = 0
KTA1 171043Z 17008KT 06/03 A2981 RMK A01 T00590034  RH  084%=      5-min Rain = 0
KTA1 171044Z 17008KT 06/03 A2981 RMK A01 T00590034  RH  084%=      5-min Rain = 0
KTA1 171045Z 17008KT 06/03 A2981 RMK A01 T00590034  RH  084%=      5-min Rain = 0
KTA1 171046Z 17009KT 06/03 A2981 RMK A01 T00590034  RH  084%=      5-min Rain = 0
KTA1 171047Z 18008KT 06/03 A2981 RMK A01 T00590034  RH  084%=      5-min Rain = 0
KTA1 171048Z 18008KT 06/03 A2981 RMK A01 T00590034  RH  084%=      5-min Rain = 0
KTA1 171049Z 17008KT 06/03 A2981 RMK A01 T00590034  RH  084%=      5-min Rain = 0
KTA1 171050Z 17008KT 06/03 A298 RMK A01 T00590034  RH  084%=      5-min Rain = 0
KTA1 171051Z 17008KT 06/03 A298 RMK A01 T00590034  RH  084%=      5-min Rain = 0
KTA1 171052Z 18008KT 06/03 A298 RMK A01 T00590034  RH  084%=      5-min Rain = 0
KTA1 171053Z 17008KT 06/03 A298 RMK A01 T00590034  RH  084%=      5-min Rain = 0
KTA1 171054Z 18008KT 06/03 A298 RMK A01 T00580034  RH  084%=      5-min Rain = 0
KTA1 171055Z 18009KT 06/03 A298 RMK A01 T00580034  RH  084%=      5-min Rain = 0
KTA1 171056Z 18008KT 06/03 A298 RMK A01 T00580034  RH  084%=      5-min Rain = 0
KTA1 171057Z 18008KT 06/03 A298 RMK A01 T00580034  RH  084%=      5-min Rain = 0
KTA1 171058Z 18008KT 06/03 A298 RMK A01 T00580034  RH  084%=      5-min Rain = 0
KTA1 171059Z 18009KT 06/03 A298 RMK A01 T00580033  RH  084%=      5-min Rain = 0
KTA1 171100Z 18008KT 06/03 A298 RMK A01 T00580034  RH  084%=      5-min Rain = 0
KTA1 171101Z 17008KT 06/03 A298 RMK A01 T00580034  RH  084%=      5-min Rain = 0
KTA1 171102Z 18007KT 06/03 A298 RMK A01 T00570033  RH  084%=      5-min Rain = 0
KTA1 171103Z 18008KT 06/03 A298 RMK A01 T00570033  RH  085%=      5-min Rain = 0
KTA1 171104Z 18007KT 06/03 A298 RMK A01 T00570033  RH  085%=      5-min Rain = 0
KTA1 171105Z 17008KT 06/03 A298 RMK A01 T00570033  RH  085%=      5-min Rain = 0
KTA1 171106Z 17008KT 06/03 A298 RMK A01 T00560033  RH  085%=      5-min Rain = 0
KTA1 171107Z 17008KT 06/03 A298 RMK A01 T00560033  RH  085%=      5-min Rain = 0
KTA1 171108Z 17008KT 06/03 A298 RMK A01 T00560033  RH  085%=      5-min Rain = 0
KTA1 171109Z 17008KT 06/03 A298 RMK A01 T00560033  RH  085%=      5-min Rain = 0
KTA1 171110Z 17008KT 06/03 A298 RMK A01 T00560033  RH  085%=      5-min Rain = 0
KTA1 171111Z 17008KT 06/03 A298 RMK A01 T00560033  RH  085%=      5-min Rain = 0
KTA1 171112Z 17008KT 06/03 A298 RMK A01 T00550033  RH  085%=      5-min Rain = 0
KTA1 171113Z 17008KT 06/03 A298 RMK A01 T00550033  RH  085%=      5-min Rain = 0
KTA1 171114Z 17009KT 06/03 A298 RMK A01 T00550032  RH  085%=      5-min Rain = 0
KTA1 171115Z 17008KT 06/03 A298 RMK A01 T00550032  RH  086%=      5-min Rain = 0
KTA1 171116Z 17008KT 05/03 A298 RMK A01 T00540032  RH  086%=      5-min Rain = 0
KTA1 171117Z 17008KT 05/03 A298 RMK A01 T00540032  RH  086%=      5-min Rain = 0
KTA1 171118Z 17008KT 05/03 A298 RMK A01 T00540032  RH  086%=      5-min Rain = 0
KTA1 171119Z 17008KT 05/03 A298 RMK A01 T00530032  RH  086%=      5-min Rain = 0
KTA1 171120Z 17008KT 05/03 A298 RMK A01 T00530032  RH  086%=      5-min Rain = 0
KTA1 171121Z 17008KT 05/03 A298 RMK A01 T00530032  RH  086%=      5-min Rain = 0
KTA1 171122Z 17008KT 05/03 A298 RMK A01 T00530032  RH  086%=      5-min Rain = 0
KTA1 171123Z 17008KT 05/03 A298 RMK A01 T00530032  RH  086%=      5-min Rain = 0
KTA1 171124Z 17007KT 05/03 A298 RMK A01 T00530032  RH  086%=      5-min Rain = 0
KTA1 171125Z 17008KT 05/03 A298 RMK A01 T00530032  RH  086%=      5-min Rain = 0
KTA1 171126Z 17007KT 05/03 A298 RMK A01 T00530032  RH  086%=      5-min Rain = 0
KTA1 171127Z 17008KT 05/03 A298 RMK A01 T00520032  RH  087%=      5-min Rain = 0
KTA1 171128Z 17007KT 05/03 A298 RMK A01 T00520032  RH  087%=      5-min Rain = 0
KTA1 171129Z 17008KT 05/03 A298 RMK A01 T00520032  RH  087%=      5-min Rain = 0
KTA1 171130Z 17008KT 05/03 A298 RMK A01 T00520032  RH  087%=      5-min Rain = 0
KTA1 171131Z 17008KT 05/03 A298 RMK A01 T00520031  RH  087%=      5-min Rain = 0
KTA1 171132Z 17007KT 05/03 A298 RMK A01 T00520031  RH  087%=      5-min Rain = 0
KTA1 171133Z 17008KT 05/03 A298 RMK A01 T00520031  RH  086%=      5-min Rain = 0
KTA1 171134Z 17008KT 05/03 A298 RMK A01 T00520032  RH  087%=      5-min Rain = 0
KTA1 171135Z 17008KT 05/03 A298 RMK A01 T00520032  RH  087%=      5-min Rain = 0
KTA1 171136Z 17007KT 05/03 A298 RMK A01 T00520032  RH  087%=      5-min Rain = 0
KTA1 171137Z 17007KT 05/03 A298 RMK A01 T00520032  RH  087%=      5-min Rain = 0
KTA1 171138Z 17007KT 05/03 A298 RMK A01 T00520031  RH  087%=      5-min Rain = 0
KTA1 171139Z 17008KT 05/03 A298 RMK A01 T00520031  RH  087%=      5-min Rain = 0
KTA1 171140Z 17008KT 05/03 A298 RMK A01 T00510031  RH  087%=      5-min Rain = 0
KTA1 171141Z 17007KT 05/03 A2979 RMK A01 T00510031  RH  087%=      5-min Rain = 0
KTA1 171142Z 17007KT 05/03 A2979 RMK A01 T00510031  RH  087%=      5-min Rain = 0
KTA1 171143Z 17007KT 05/03 A2979 RMK A01 T00510031  RH  087%=      5-min Rain = 0
KTA1 171144Z 17007KT 05/03 A2979 RMK A01 T00510031  RH  087%=      5-min Rain = 0
KTA1 171145Z 17008KT 05/03 A2979 RMK A01 T00510031  RH  087%=      5-min Rain = 0
KTA1 171146Z 17007KT 05/03 A2979 RMK A01 T00510031  RH  087%=      5-min Rain = 0
KTA1 171147Z 17007KT 05/03 A2979 RMK A01 T00510031  RH  087%=      5-min Rain = 0
KTA1 171148Z 17007KT 05/03 A2979 RMK A01 T00510031  RH  087%=      5-min Rain = 0
KTA1 171149Z 17007KT 05/03 A2979 RMK A01 T00510031  RH  087%=      5-min Rain = 0
KTA1 171150Z 17007KT 05/03 A2979 RMK A01 T00510031  RH  087%=      5-min Rain = 0
KTA1 171151Z 17008KT 05/03 A2979 RMK A01 T00510031  RH  087%=      5-min Rain = 0
KTA1 171152Z 17007KT 05/03 A2979 RMK A01 T00510031  RH  087%=      5-min Rain = 0
KTA1 171153Z 17007KT 05/03 A2979 RMK A01 T00500030  RH  087%=      5-min Rain = 0
KTA1 171154Z 18007KT 05/03 A2979 RMK A01 T00500030  RH  087%=      5-min Rain = 0
KTA1 171155Z 18006KT 05/03 A2979 RMK A01 T00500030  RH  087%=      5-min Rain = 0
KTA1 171156Z 17007KT 05/03 A2979 RMK A01 T00500031  RH  087%=      5-min Rain = 0
KTA1 171157Z 17007KT 05/03 A2979 RMK A01 T00500030  RH  087%=      5-min Rain = 0
KTA1 171158Z 18007KT 05/03 A2979 RMK A01 T00500030  RH  087%=      5-min Rain = 0
KTA1 171159Z 18007KT 05/03 A2979 RMK A01 T00500030  RH  087%=      5-min Rain = 0
KTA1 171200Z 18007KT 05/03 A2979 RMK A01 T00500030  RH  087%=      5-min Rain = 0
KTA1 171201Z 18007KT 05/03 A2979 RMK A01 T00490030  RH  087%=      5-min Rain = 0
KTA1 171202Z 18008KT 05/03 A2979 RMK A01 T00490030  RH  087%=      5-min Rain = 0
KTA1 171203Z 18007KT 05/03 A2979 RMK A01 T00490030  RH  087%=      5-min Rain = 0
KTA1 171204Z 18007KT 05/03 A2979 RMK A01 T00490030  RH  087%=      5-min Rain = 0
KTA1 171205Z 18007KT 05/03 A2979 RMK A01 T00490030  RH  087%=      5-min Rain = 0
KTA1 171206Z 18007KT 05/03 A2979 RMK A01 T00500030  RH  087%=      5-min Rain = 0
KTA1 171207Z 18008KT 05/03 A2979 RMK A01 T00490029  RH  087%=      5-min Rain = 0
KTA1 171208Z 18008KT 05/03 A2979 RMK A01 T00490030  RH  087%=      5-min Rain = 0
KTA1 171209Z 18008KT 05/03 A2979 RMK A01 T00490029  RH  087%=      5-min Rain = 0
KTA1 171210Z 18008KT 05/03 A2979 RMK A01 T00480029  RH  087%=      5-min Rain = 0
KTA1 171211Z 18008KT 05/03 A2979 RMK A01 T00480029  RH  087%=      5-min Rain = 0
KTA1 171212Z 18008KT 05/03 A2979 RMK A01 T00480029  RH  087%=      5-min Rain = 0
KTA1 171213Z 18008KT 05/03 A2979 RMK A01 T00480029  RH  087%=      5-min Rain = 0
KTA1 171214Z 18008KT 05/03 A2979 RMK A01 T00480029  RH  087%=      5-min Rain = 0
KTA1 171215Z 18008KT 05/03 A2979 RMK A01 T00480029  RH  087%=      5-min Rain = 0
KTA1 171216Z 18008KT 05/03 A2979 RMK A01 T00480029  RH  087%=      5-min Rain = 0
KTA1 171217Z 18008KT 05/03 A2979 RMK A01 T00480029  RH  087%=      5-min Rain = 0
KTA1 171218Z 18007KT 05/03 A2979 RMK A01 T00480029  RH  087%=      5-min Rain = 0
KTA1 171219Z 18007KT 05/03 A2979 RMK A01 T00480029  RH  087%=      5-min Rain = 0
KTA1 171220Z 18008KT 05/03 A2979 RMK A01 T00480028  RH  087%=      5-min Rain = 0
KTA1 171221Z 18007KT 05/03 A2979 RMK A01 T00470028  RH  088%=      5-min Rain = 0
KTA1 171222Z 18007KT 05/03 A2979 RMK A01 T00460028  RH  088%=      5-min Rain = 0
KTA1 171223Z 18008KT 05/03 A2979 RMK A01 T00460028  RH  088%=      5-min Rain = 0
KTA1 171224Z 18008KT 05/03 A2979 RMK A01 T00460028  RH  088%=      5-min Rain = 0
KTA1 171225Z 18008KT 05/03 A2978 RMK A01 T00460028  RH  088%=      5-min Rain = 0
KTA1 171226Z 18008KT 05/03 A2978 RMK A01 T00460028  RH  088%=      5-min Rain = 0
KTA1 171227Z 18008KT 05/03 A2978 RMK A01 T00460028  RH  088%=      5-min Rain = 0
KTA1 171228Z 18007KT 05/03 A2978 RMK A01 T00460028  RH  088%=      5-min Rain = 0
KTA1 171229Z 18007KT 05/03 A2978 RMK A01 T00460028  RH  088%=      5-min Rain = 0
KTA1 171230Z 18007KT 05/03 A2978 RMK A01 T00460028  RH  088%=      5-min Rain = 0
KTA1 171231Z 18007KT 05/03 A2978 RMK A01 T00460028  RH  088%=      5-min Rain = 0
KTA1 171232Z 18008KT 05/03 A2978 RMK A01 T00470028  RH  088%=      5-min Rain = 0
KTA1 171233Z 18008KT 05/03 A2978 RMK A01 T00470028  RH  088%=      5-min Rain = 0
KTA1 171234Z 18008KT 05/03 A2978 RMK A01 T00470028  RH  088%=      5-min Rain = 0
KTA1 171235Z 18007KT 05/03 A2978 RMK A01 T00460028  RH  088%=      5-min Rain = 0
KTA1 171236Z 19007KT 05/03 A2978 RMK A01 T00460028  RH  088%=      5-min Rain = 0
KTA1 171237Z 18007KT 05/03 A2978 RMK A01 T00460028  RH  088%=      5-min Rain = 0
KTA1 171238Z 18007KT 05/03 A2978 RMK A01 T00460028  RH  088%=      5-min Rain = 0
KTA1 171239Z 18007KT 05/03 A2978 RMK A01 T00460028  RH  088%=      5-min Rain = 0
KTA1 171240Z 18007KT 05/03 A2978 RMK A01 T00460028  RH  088%=      5-min Rain = 0
KTA1 171241Z 18008KT 05/03 A2978 RMK A01 T00460028  RH  088%=      5-min Rain = 0
KTA1 171242Z 18006KT 05/03 A2978 RMK A01 T00460028  RH  088%=      5-min Rain = 0
KTA1 171243Z 18007KT 05/03 A2978 RMK A01 T00460028  RH  088%=      5-min Rain = 0
KTA1 171244Z 18008KT 05/03 A2978 RMK A01 T00460027  RH  088%=      5-min Rain = 0
KTA1 171245Z 18008KT 05/03 A2978 RMK A01 T00450027  RH  088%=      5-min Rain = 0
KTA1 171246Z 18008KT 05/03 A2978 RMK A01 T00450027  RH  088%=      5-min Rain = 0
KTA1 171247Z 18007KT 05/03 A2978 RMK A01 T00450027  RH  088%=      5-min Rain = 0
KTA1 171248Z 18008KT 05/03 A2978 RMK A01 T00450027  RH  088%=      5-min Rain = 0
KTA1 171249Z 18008KT 05/03 A2978 RMK A01 T00450027  RH  088%=      5-min Rain = 0
KTA1 171250Z 18008KT 05/03 A2978 RMK A01 T00450027  RH  088%=      5-min Rain = 0
KTA1 171251Z 18008KT 05/03 A2978 RMK A01 T00450027  RH  088%=      5-min Rain = 0
KTA1 171252Z 18008KT 05/03 A2978 RMK A01 T00450027  RH  088%=      5-min Rain = 0
KTA1 171253Z 18008KT 05/03 A2978 RMK A01 T00450027  RH  088%=      5-min Rain = 0
KTA1 171254Z 18008KT 05/03 A2978 RMK A01 T00450027  RH  088%=      5-min Rain = 0
KTA1 171255Z 18008KT 05/03 A2978 RMK A01 T00450027  RH  088%=      5-min Rain = 0
KTA1 171256Z 18008KT 05/03 A2978 RMK A01 T00450027  RH  088%=      5-min Rain = 0
KTA1 171257Z 18008KT 04/03 A2978 RMK A01 T00440026  RH  088%=      5-min Rain = 0
KTA1 171258Z 18007KT 04/03 A2978 RMK A01 T00440026  RH  088%=      5-min Rain = 0
KTA1 171259Z 18007KT 04/03 A2978 RMK A01 T00440026  RH  088%=      5-min Rain = 0
KTA1 171300Z 18007KT 04/03 A2978 RMK A01 T00430026  RH  088%=      5-min Rain = 0
KTA1 171301Z 18007KT 04/03 A2978 RMK A01 T00440026  RH  088%=      5-min Rain = 0
KTA1 171302Z 18006KT 04/03 A2978 RMK A01 T00440026  RH  088%=      5-min Rain = 0
KTA1 171303Z 18006KT 04/03 A2978 RMK A01 T00440026  RH  088%=      5-min Rain = 0
KTA1 171304Z 18006KT 04/03 A2978 RMK A01 T00430025  RH  088%=      5-min Rain = 0
KTA1 171305Z 18006KT 04/03 A2978 RMK A01 T00430026  RH  088%=      5-min Rain = 0
KTA1 171306Z 18007KT 04/03 A2978 RMK A01 T00430025  RH  089%=      5-min Rain = 0
KTA1 171307Z 18007KT 04/03 A2978 RMK A01 T00430025  RH  089%=      5-min Rain = 0
KTA1 171308Z 18007KT 04/03 A2978 RMK A01 T00430025  RH  088%=      5-min Rain = 0
KTA1 171309Z 18007KT 04/03 A2978 RMK A01 T00430025  RH  088%=      5-min Rain = 0
KTA1 171310Z 18007KT 04/03 A2978 RMK A01 T00430025  RH  088%=      5-min Rain = 0
KTA1 171311Z 18007KT 04/03 A2978 RMK A01 T00430025  RH  088%=      5-min Rain = 0
KTA1 171312Z 18007KT 04/03 A2978 RMK A01 T00420025  RH  088%=      5-min Rain = 0
KTA1 171313Z 18006KT 04/03 A2978 RMK A01 T00420025  RH  088%=      5-min Rain = 0
KTA1 171314Z 19006KT 04/03 A2978 RMK A01 T00420025  RH  089%=      5-min Rain = 0
KTA1 171315Z 18006KT 04/03 A2978 RMK A01 T00420025  RH  088%=      5-min Rain = 0
KTA1 171316Z 18006KT 04/02 A2978 RMK A01 T00410024  RH  088%=      5-min Rain = 0
KTA1 171317Z 18007KT 04/02 A2978 RMK A01 T00410024  RH  089%=      5-min Rain = 0
KTA1 171318Z 19007KT 04/02 A2978 RMK A01 T00400024  RH  089%=      5-min Rain = 0
KTA1 171319Z 19007KT 04/02 A2978 RMK A01 T00400024  RH  089%=      5-min Rain = 0
KTA1 171320Z 19007KT 04/02 A2978 RMK A01 T00400023  RH  089%=      5-min Rain = 0
KTA1 171321Z 19006KT 04/02 A2978 RMK A01 T00390023  RH  089%=      5-min Rain = 0
KTA1 171322Z 19007KT 04/02 A2978 RMK A01 T00390023  RH  089%=      5-min Rain = 0
KTA1 171323Z 19007KT 04/02 A2978 RMK A01 T00400023  RH  089%=      5-min Rain = 0
KTA1 171324Z 19007KT 04/02 A2978 RMK A01 T00400023  RH  089%=      5-min Rain = 0
KTA1 171325Z 19007KT 04/02 A2978 RMK A01 T00400023  RH  089%=      5-min Rain = 0
KTA1 171326Z 19007KT 04/02 A2978 RMK A01 T00400023  RH  089%=      5-min Rain = 0
KTA1 171327Z 19007KT 04/02 A2978 RMK A01 T00400023  RH  089%=      5-min Rain = 0
KTA1 171328Z 19007KT 04/02 A2978 RMK A01 T00390023  RH  089%=      5-min Rain = 0
KTA1 171329Z 19006KT 04/02 A2978 RMK A01 T00390023  RH  089%=      5-min Rain = 0
KTA1 171330Z 19006KT 04/02 A2978 RMK A01 T00390023  RH  089%=      5-min Rain = 0
KTA1 171331Z 20007KT 04/02 A2978 RMK A01 T00400023  RH  089%=      5-min Rain = 0
KTA1 171332Z 20006KT 04/02 A2978 RMK A01 T00390023  RH  089%=      5-min Rain = 0
KTA1 171333Z 20006KT 04/02 A2978 RMK A01 T00380022  RH  089%=      5-min Rain = 0
KTA1 171334Z 20006KT 04/02 A2978 RMK A01 T00380022  RH  089%=      5-min Rain = 0
KTA1 171335Z 20006KT 04/02 A2978 RMK A01 T00380022  RH  090%=      5-min Rain = 0
KTA1 171336Z 20006KT 04/02 A2978 RMK A01 T00370021  RH  090%=      5-min Rain = 0
KTA1 171337Z 20007KT 04/02 A2978 RMK A01 T00370021  RH  090%=      5-min Rain = 0
KTA1 171338Z 20006KT 04/02 A2978 RMK A01 T00370022  RH  090%=      5-min Rain = 0
KTA1 171339Z 21006KT 04/02 A2978 RMK A01 T00360022  RH  090%=      5-min Rain = 0
KTA1 171340Z 21006KT 04/02 A2978 RMK A01 T00360021  RH  090%=      5-min Rain = 0
KTA1 171341Z 21006KT 04/02 A2978 RMK A01 T00360021  RH  090%=      5-min Rain = 0
KTA1 171342Z 21006KT 04/02 A2978 RMK A01 T00360021  RH  090%=      5-min Rain = 0
KTA1 171343Z 20007KT 04/02 A2979 RMK A01 T00360021  RH  090%=      5-min Rain = 0
KTA1 171344Z 20007KT 04/02 A2978 RMK A01 T00360021  RH  090%=      5-min Rain = 0
KTA1 171345Z 21007KT 04/02 A2978 RMK A01 T00360021  RH  090%=      5-min Rain = 0
KTA1 171346Z 20007KT 04/02 A2979 RMK A01 T00370021  RH  089%=      5-min Rain = 0
KTA1 171347Z 20007KT 04/02 A2979 RMK A01 T00370021  RH  089%=      5-min Rain = 0
KTA1 171348Z 21007KT 04/02 A2979 RMK A01 T00380021  RH  089%=      5-min Rain = 0
KTA1 171349Z 21007KT 04/02 A2979 RMK A01 T00380021  RH  089%=      5-min Rain = 0
KTA1 171350Z 21007KT 04/02 A2979 RMK A01 T00380021  RH  089%=      5-min Rain = 0
KTA1 171351Z 21006KT 04/02 A2979 RMK A01 T00380021  RH  089%=      5-min Rain = 0
KTA1 171352Z 21006KT 04/02 A2979 RMK A01 T00380021  RH  089%=      5-min Rain = 0
KTA1 171353Z 21006KT 04/02 A2979 RMK A01 T00380021  RH  089%=      5-min Rain = 0
KTA1 171354Z 21006KT 04/02 A2978 RMK A01 T00380021  RH  089%=      5-min Rain = 0
KTA1 171355Z 21005KT 04/02 A2978 RMK A01 T00380021  RH  089%=      5-min Rain = 0
KTA1 171356Z 21005KT 04/02 A2978 RMK A01 T00380021  RH  089%=      5-min Rain = 0
KTA1 171357Z 21005KT 04/02 A2978 RMK A01 T00380021  RH  088%=      5-min Rain = 0
KTA1 171358Z 21005KT 04/02 A2979 RMK A01 T00390021  RH  088%=      5-min Rain = 0
KTA1 171359Z 21005KT 04/02 A2979 RMK A01 T00390021  RH  088%=      5-min Rain = 0
KTA1 171400Z 20005KT 04/02 A2979 RMK A01 T00400021  RH  088%=      5-min Rain = 0
KTA1 171401Z 20005KT 04/02 A2979 RMK A01 T00400021  RH  088%=      5-min Rain = 0
KTA1 171402Z 19005KT 04/02 A2979 RMK A01 T00400022  RH  088%=      5-min Rain = 0
KTA1 171403Z 19005KT 04/02 A2979 RMK A01 T00400021  RH  088%=      5-min Rain = 0
KTA1 171404Z 19004KT 04/02 A2979 RMK A01 T00410022  RH  087%=      5-min Rain = 0
KTA1 171405Z 20004KT 04/02 A2979 RMK A01 T00410022  RH  087%=      5-min Rain = 0
KTA1 171406Z 20005KT 04/02 A2979 RMK A01 T00420022  RH  087%=      5-min Rain = 0
KTA1 171407Z 20004KT 04/02 A2979 RMK A01 T00430022  RH  087%=      5-min Rain = 0
KTA1 171408Z 19005KT 04/02 A2979 RMK A01 T00430023  RH  086%=      5-min Rain = 0
KTA1 171409Z 19005KT 04/02 A2979 RMK A01 T00440023  RH  086%=      5-min Rain = 0
KTA1 171410Z 19005KT 04/02 A2979 RMK A01 T00440022  RH  086%=      5-min Rain = 0
KTA1 171411Z 18006KT 04/02 A2979 RMK A01 T00440022  RH  086%=      5-min Rain = 0
KTA1 171412Z 18006KT 04/02 A2979 RMK A01 T00440023  RH  086%=      5-min Rain = 0
KTA1 171413Z 18007KT 04/02 A2979 RMK A01 T00440023  RH  086%=      5-min Rain = 0
KTA1 171414Z 19006KT 04/02 A2979 RMK A01 T00440022  RH  086%=      5-min Rain = 0
KTA1 171415Z 20006KT 05/02 A2979 RMK A01 T00450023  RH  086%=      5-min Rain = 0
KTA1 171416Z 21005KT 05/02 A2979 RMK A01 T00460023  RH  085%=      5-min Rain = 0
KTA1 171417Z 20005KT 05/02 A2979 RMK A01 T00460024  RH  085%=      5-min Rain = 0
KTA1 171418Z 19005KT 05/02 A2979 RMK A01 T00460023  RH  085%=      5-min Rain = 0
KTA1 171419Z 19005KT 05/02 A2979 RMK A01 T00470023  RH  085%=      5-min Rain = 0
KTA1 171420Z 19004KT 05/02 A2979 RMK A01 T00470024  RH  085%=      5-min Rain = 0
KTA1 171421Z 20006KT 05/02 A2979 RMK A01 T00480024  RH  085%=      5-min Rain = 0
KTA1 171422Z 20005KT 05/02 A2979 RMK A01 T00490024  RH  084%=      5-min Rain = 0
KTA1 171423Z 20005KT 05/03 A2979 RMK A01 T00490025  RH  084%=      5-min Rain = 0
KTA1 171424Z 19005KT 05/03 A2979 RMK A01 T00500025  RH  084%=      5-min Rain = 0
KTA1 171425Z 19005KT 05/03 A2979 RMK A01 T00500025  RH  084%=      5-min Rain = 0
KTA1 171426Z 19004KT 05/03 A2979 RMK A01 T00510025  RH  084%=      5-min Rain = 0
KTA1 171427Z 19005KT 05/03 A2979 RMK A01 T00510025  RH  084%=      5-min Rain = 0
KTA1 171428Z 19004KT 05/03 A2979 RMK A01 T00520026  RH  084%=      5-min Rain = 0
KTA1 171429Z 19004KT 05/03 A2979 RMK A01 T00520026  RH  083%=      5-min Rain = 0
KTA1 171430Z 19005KT 05/03 A2979 RMK A01 T00530026  RH  083%=      5-min Rain = 0
KTA1 171431Z 19005KT 05/03 A2979 RMK A01 T00530026  RH  082%=      5-min Rain = 0
KTA1 171432Z 19004KT 05/03 A2979 RMK A01 T00530026  RH  082%=      5-min Rain = 0
KTA1 171433Z 19005KT 05/03 A2979 RMK A01 T00540027  RH  083%=      5-min Rain = 0
KTA1 171434Z 19005KT 06/03 A2979 RMK A01 T00550028  RH  083%=      5-min Rain = 0
KTA1 171435Z 19005KT 06/03 A2979 RMK A01 T00550027  RH  082%=      5-min Rain = 0
KTA1 171436Z 19005KT 06/03 A2979 RMK A01 T00550026  RH  082%=      5-min Rain = 0
KTA1 171437Z 19005KT 06/03 A2979 RMK A01 T00560027  RH  082%=      5-min Rain = 0
KTA1 171438Z 20005KT 06/03 A2979 RMK A01 T00560027  RH  082%=      5-min Rain = 0
KTA1 171439Z 20005KT 06/03 A2979 RMK A01 T00560027  RH  082%=      5-min Rain = 0
KTA1 171440Z 19005KT 06/03 A2979 RMK A01 T00560027  RH  082%=      5-min Rain = 0
KTA1 171441Z 19004KT 06/03 A2979 RMK A01 T00570028  RH  081%=      5-min Rain = 0
KTA1 171442Z 19004KT 06/03 A2979 RMK A01 T00570028  RH  082%=      5-min Rain = 0
KTA1 171443Z 19004KT 06/03 A2979 RMK A01 T00570029  RH  082%=      5-min Rain = 0
KTA1 171444Z 19006KT 06/03 A2979 RMK A01 T00590029  RH  082%=      5-min Rain = 0
KTA1 171445Z 19006KT 06/03 A2979 RMK A01 T00590029  RH  081%=      5-min Rain = 0
KTA1 171446Z 19005KT 06/03 A2979 RMK A01 T00590029  RH  081%=      5-min Rain = 0
KTA1 171447Z 19005KT 06/03 A2979 RMK A01 T00600030  RH  081%=      5-min Rain = 0
KTA1 171448Z 19006KT 06/03 A2979 RMK A01 T00610030  RH  081%=      5-min Rain = 0
KTA1 171449Z 19005KT 06/03 A2979 RMK A01 T00620030  RH  080%=      5-min Rain = 0
KTA1 171450Z 20006KT 06/03 A2979 RMK A01 T00630032  RH  080%=      5-min Rain = 0
KTA1 171451Z 20006KT 06/03 A2979 RMK A01 T00640032  RH  080%=      5-min Rain = 0
KTA1 171452Z 19007KT 07/03 A2979 RMK A01 T00650032  RH  079%=      5-min Rain = 0
KTA1 171453Z 19006KT 07/03 A2979 RMK A01 T00650030  RH  079%=      5-min Rain = 0
KTA1 171454Z 20005KT 07/03 A2979 RMK A01 T00650031  RH  079%=      5-min Rain = 0
KTA1 171455Z 19007KT 07/03 A2979 RMK A01 T00660033  RH  079%=      5-min Rain = 0
KTA1 171456Z 20007KT 07/03 A2979 RMK A01 T00670032  RH  078%=      5-min Rain = 0
KTA1 171457Z 20007KT 07/03 A2979 RMK A01 T00670032  RH  078%=      5-min Rain = 0
KTA1 171458Z 20006KT 07/03 A2979 RMK A01 T00680032  RH  078%=      5-min Rain = 0
KTA1 171459Z 20006KT 07/03 A2979 RMK A01 T00680033  RH  078%=      5-min Rain = 0
KTA1 171500Z 19006KT 07/03 A2979 RMK A01 T00690033  RH  078%=      5-min Rain = 0
KTA1 171501Z 19007KT 07/03 A2979 RMK A01 T00690033  RH  077%=      5-min Rain = 0
KTA1 171502Z 20007KT 07/03 A2979 RMK A01 T00700032  RH  077%=      5-min Rain = 0
KTA1 171503Z 20007KT 07/03 A2979 RMK A01 T00700033  RH  077%=      5-min Rain = 0
KTA1 171504Z 20006KT 07/03 A2979 RMK A01 T00710034  RH  077%=      5-min Rain = 0
KTA1 171505Z 20006KT 07/04 A2979 RMK A01 T00720035  RH  077%=      5-min Rain = 0
KTA1 171506Z 20005KT 07/04 A2979 RMK A01 T00730035  RH  076%=      5-min Rain = 0
KTA1 171507Z 20005KT 07/04 A2979 RMK A01 T00740036  RH  077%=      5-min Rain = 0
KTA1 171508Z 20006KT 08/04 A2979 RMK A01 T00750035  RH  076%=      5-min Rain = 0
KTA1 171509Z 20006KT 08/03 A2979 RMK A01 T00760034  RH  075%=      5-min Rain = 0
KTA1 171510Z 20006KT 08/04 A2979 RMK A01 T00760036  RH  075%=      5-min Rain = 0
KTA1 171511Z 21006KT 08/04 A2979 RMK A01 T00770037  RH  075%=      5-min Rain = 0
KTA1 171512Z 21007KT 08/04 A2979 RMK A01 T00780036  RH  074%=      5-min Rain = 0
KTA1 171513Z 21007KT 08/04 A2979 RMK A01 T00790036  RH  074%=      5-min Rain = 0
KTA1 171514Z 22007KT 08/04 A2979 RMK A01 T00800037  RH  074%=      5-min Rain = 0
KTA1 171515Z 21008KT 08/04 A2979 RMK A01 T00810035  RH  073%=      5-min Rain = 0
KTA1 171516Z 21008KT 08/03 A2978 RMK A01 T00830034  RH  071%=      5-min Rain = 0
KTA1 171517Z 21008KT 09/03 A2978 RMK A01 T00850033  RH  070%=      5-min Rain = 0
KTA1 171518Z 21007KT 09/03 A2978 RMK A01 T00860034  RH  070%=      5-min Rain = 0
KTA1 171519Z 21009KT 09/03 A2978 RMK A01 T00880034  RH  069%=      5-min Rain = 0
KTA1 171520Z 21010KT 09/03 A2978 RMK A01 T00890029  RH  066%=      5-min Rain = 0
KTA1 171521Z 21010KT 09/03 A2978 RMK A01 T00900028  RH  065%=      5-min Rain = 0
KTA1 171522Z 21009KT 09/03 A2978 RMK A01 T00900028  RH  065%=      5-min Rain = 0
KTA1 171523Z 21008KT 09/03 A2979 RMK A01 T00910030  RH  066%=      5-min Rain = 0
KTA1 171524Z 22009KT 09/03 A2979 RMK A01 T00920034  RH  067%=      5-min Rain = 0
KTA1 171525Z 21011KT 09/03 A2979 RMK A01 T00920028  RH  064%=      5-min Rain = 0
KTA1 171526Z 22010KT 09/03 A2979 RMK A01 T00920028  RH  064%=      5-min Rain = 0
KTA1 171527Z 22008KT 09/03 A2979 RMK A01 T00920028  RH  064%=      5-min Rain = 0
KTA1 171528Z 22009KT 09/03 A2979 RMK A01 T00930029  RH  064%=      5-min Rain = 0
KTA1 171529Z 22010KT 09/03 A2979 RMK A01 T00930029  RH  064%=      5-min Rain = 0
KTA1 171530Z 21011KT 09/03 A2979 RMK A01 T00940029  RH  064%=      5-min Rain = 0
KTA1 171531Z 21011KT 09/03 A2979 RMK A01 T00930026  RH  063%=      5-min Rain = 0
KTA1 171532Z 21011KT 09/03 A2979 RMK A01 T00930026  RH  063%=      5-min Rain = 0
KTA1 171533Z 22009KT 09/03 A2979 RMK A01 T00940028  RH  063%=      5-min Rain = 0
KTA1 171534Z 22012KT 10/03 A2979 RMK A01 T00950028  RH  063%=      5-min Rain = 0
KTA1 171535Z 21010KT 10/03 A2979 RMK A01 T00950027  RH  063%=      5-min Rain = 0
KTA1 171536Z 21011KT 10/03 A2979 RMK A01 T00960029  RH  063%=      5-min Rain = 0
KTA1 171537Z 22010KT 10/03 A2979 RMK A01 T00960027  RH  062%=      5-min Rain = 0
KTA1 171538Z 21009KT 10/03 A2979 RMK A01 T00970030  RH  063%=      5-min Rain = 0
KTA1 171539Z 21010KT 10/03 A2979 RMK A01 T00970030  RH  063%=      5-min Rain = 0
KTA1 171540Z 21010KT 10/03 A2979 RMK A01 T00980030  RH  063%=      5-min Rain = 0
KTA1 171541Z 21011KT 10/03 A2979 RMK A01 T00990028  RH  062%=      5-min Rain = 0
KTA1 171542Z 21010KT 10/03 A2979 RMK A01 T00990028  RH  061%=      5-min Rain = 0
KTA1 171543Z 21009KT 10/03 A2979 RMK A01 T01000029  RH  061%=      5-min Rain = 0
KTA1 171544Z 22010KT 10/03 A2979 RMK A01 T01000030  RH  062%=      5-min Rain = 0
KTA1 171545Z 22009KT 10/03 A2979 RMK A01 T01010028  RH  061%=      5-min Rain = 0
KTA1 171546Z 22008KT 10/03 A2979 RMK A01 T01010032  RH  062%=      5-min Rain = 0
KTA1 171547Z 22009KT 10/03 A2979 RMK A01 T01030032  RH  062%=      5-min Rain = 0
KTA1 171548Z 22008KT 10/03 A2979 RMK A01 T01040034  RH  062%=      5-min Rain = 0
KTA1 171549Z 22010KT 11/03 A2979 RMK A01 T01050032  RH  061%=      5-min Rain = 0
KTA1 171550Z 23010KT 11/03 A2979 RMK A01 T01060031  RH  060%=      5-min Rain = 0
KTA1 171551Z 22011KT 11/03 A2979 RMK A01 T01060028  RH  059%=      5-min Rain = 0
KTA1 171552Z 22012KT 11/03 A2979 RMK A01 T01070028  RH  058%=      5-min Rain = 0
KTA1 171553Z 22011KT 11/03 A2978 RMK A01 T01070025  RH  057%=      5-min Rain = 0
KTA1 171554Z 22011KT 11/03 A2978 RMK A01 T01080025  RH  056%=      5-min Rain = 0
KTA1 171555Z 22010KT 11/03 A2978 RMK A01 T01090026  RH  056%=      5-min Rain = 0
KTA1 171556Z 22011KT 11/03 A2978 RMK A01 T01110027  RH  056%=      5-min Rain = 0
KTA1 171557Z 22010KT 11/03 A2978 RMK A01 T01120025  RH  055%=      5-min Rain = 0
KTA1 171558Z 22011KT 11/03 A2978 RMK A01 T01130026  RH  055%=      5-min Rain = 0
KTA1 171559Z 22011KT 11/03 A2978 RMK A01 T01130025  RH  055%=      5-min Rain = 0
KTA1 171600Z 22011KT 11/03 A2978 RMK A01 T01140027  RH  055%=      5-min Rain = 0
KTA1 171601Z 22012KT 12/03 A2978 RMK A01 T01150025  RH  054%=      5-min Rain = 0
KTA1 171602Z 22013KT 12/02 A2978 RMK A01 T01160023  RH  053%=      5-min Rain = 0
KTA1 171603Z 22011KT 12/02 A2978 RMK A01 T01170023  RH  053%=      5-min Rain = 0
KTA1 171604Z 22012KT 12/03 A2978 RMK A01 T01180025  RH  053%=      5-min Rain = 0
KTA1 171605Z 22012KT 12/02 A2978 RMK A01 T01180023  RH  052%=      5-min Rain = 0
KTA1 171606Z 23012KT 12/02 A2978 RMK A01 T01180023  RH  052%=      5-min Rain = 0
KTA1 171607Z 22012KT 12/02 A2978 RMK A01 T01180023  RH  052%=      5-min Rain = 0
KTA1 171608Z 23010KT 12/03 A2978 RMK A01 T01190026  RH  053%=      5-min Rain = 0
KTA1 171609Z 22011KT 12/03 A2978 RMK A01 T01210026  RH  052%=      5-min Rain = 0
KTA1 171610Z 23010KT 12/02 A2978 RMK A01 T01220023  RH  051%=      5-min Rain = 0
KTA1 171611Z 23007KT 12/03 A2978 RMK A01 T01230028  RH  052%=      5-min Rain = 0
KTA1 171612Z 23010KT 12/03 A2978 RMK A01 T01240026  RH  051%=      5-min Rain = 0
KTA1 171613Z 23010KT 12/02 A2978 RMK A01 T01240024  RH  051%=      5-min Rain = 0
KTA1 171614Z 23010KT 12/02 A2978 RMK A01 T01240024  RH  050%=      5-min Rain = 0
KTA1 171615Z 24009KT 12/02 A2978 RMK A01 T01240024  RH  050%=      5-min Rain = 0
KTA1 171616Z 23007KT 13/03 A2978 RMK A01 T01250025  RH  051%=      5-min Rain = 0
KTA1 171617Z 23009KT 13/03 A2978 RMK A01 T01260026  RH  050%=      5-min Rain = 0
KTA1 171618Z 24009KT 13/03 A2978 RMK A01 T01270025  RH  050%=      5-min Rain = 0
KTA1 171619Z 23008KT 13/02 A2978 RMK A01 T01270024  RH  049%=      5-min Rain = 0
KTA1 171620Z 23008KT 13/03 A2978 RMK A01 T01280026  RH  050%=      5-min Rain = 0
KTA1 171621Z 23008KT 13/02 A2978 RMK A01 T01280024  RH  049%=      5-min Rain = 0
KTA1 171622Z 23010KT 13/02 A2978 RMK A01 T01290023  RH  049%=      5-min Rain = 0
KTA1 171623Z 22009KT 13/02 A2978 RMK A01 T01290021  RH  048%=      5-min Rain = 0
KTA1 171624Z 24010KT 13/02 A2978 RMK A01 T01290022  RH  048%=      5-min Rain = 0
KTA1 171625Z 23010KT 13/02 A2978 RMK A01 T01300022  RH  048%=      5-min Rain = 0
KTA1 171626Z 23011KT 13/02 A2978 RMK A01 T01310021  RH  047%=      5-min Rain = 0
KTA1 171627Z 23012KT 13/02 A2978 RMK A01 T01310016  RH  046%=      5-min Rain = 0
KTA1 171628Z 23013KT 13/02 A2978 RMK A01 T01310017  RH  046%=      5-min Rain = 0
KTA1 171629Z 24012KT 13/02 A2978 RMK A01 T01310015  RH  045%=      5-min Rain = 0
KTA1 171630Z 25012KT 13/02 A2978 RMK A01 T01310016  RH  045%=      5-min Rain = 0
KTA1 171631Z 24013KT 13/01 A2978 RMK A01 T01310014  RH  045%=      5-min Rain = 0
KTA1 171632Z 24013KT 13/01 A2978 RMK A01 T01310014  RH  045%=      5-min Rain = 0
KTA1 171633Z 23012KT 13/01 A2978 RMK A01 T01310013  RH  045%=      5-min Rain = 0
KTA1 171634Z 23012KT 13/01 A2978 RMK A01 T01310014  RH  045%=      5-min Rain = 0
KTA1 171635Z 24011KT 13/02 A2978 RMK A01 T01320018  RH  046%=      5-min Rain = 0
KTA1 171636Z 24012KT 13/02 A2978 RMK A01 T01330018  RH  046%=      5-min Rain = 0
KTA1 171637Z 24010KT 13/02 A2978 RMK A01 T01340021  RH  046%=      5-min Rain = 0
KTA1 171638Z 24009KT 14/02 A2978 RMK A01 T01350022  RH  046%=      5-min Rain = 0
KTA1 171639Z 23010KT 14/03 A2978 RMK A01 T01370025  RH  047%=      5-min Rain = 0
KTA1 171640Z 23012KT 14/02 A2978 RMK A01 T01380018  RH  044%=      5-min Rain = 0
KTA1 171641Z 23010KT 14/02 A2978 RMK A01 T01370019  RH  045%=      5-min Rain = 0
KTA1 171642Z 24008KT 14/03 A2978 RMK A01 T01370025  RH  047%=      5-min Rain = 0
KTA1 171643Z 24011KT 14/03 A2978 RMK A01 T01390026  RH  046%=      5-min Rain = 0
KTA1 171644Z 23010KT 14/02 A2978 RMK A01 T01390024  RH  046%=      5-min Rain = 0
KTA1 171645Z 23014KT 14/02 A2978 RMK A01 T01390022  RH  045%=      5-min Rain = 0
KTA1 171646Z 23012KT 14/02 A2978 RMK A01 T01390015  RH  043%=      5-min Rain = 0
KTA1 171647Z 23013KT 14/02 A2978 RMK A01 T01370015  RH  043%=      5-min Rain = 0
KTA1 171648Z 23011KT 14/01 A2978 RMK A01 T01370014  RH  043%=      5-min Rain = 0
KTA1 171649Z 23011KT 14/02 A2978 RMK A01 T01360016  RH  044%=      5-min Rain = 0
KTA1 171650Z 24011KT 14/02 A2978 RMK A01 T01370017  RH  044%=      5-min Rain = 0
KTA1 171651Z 23009KT 14/02 A2978 RMK A01 T01380019  RH  044%=      5-min Rain = 0
KTA1 171652Z 23009KT 14/02 A2978 RMK A01 T01390019  RH  044%=      5-min Rain = 0
KTA1 171653Z 22009KT 14/02 A2978 RMK A01 T01400022  RH  045%=      5-min Rain = 0
KTA1 171654Z 24010KT 14/02 A2978 RMK A01 T01410022  RH  045%=      5-min Rain = 0
KTA1 171655Z 24011KT 14/02 A2978 RMK A01 T01410016  RH  043%=      5-min Rain = 0
KTA1 171656Z 24010KT 14/02 A2978 RMK A01 T01400016  RH  043%=      5-min Rain = 0
KTA1 171657Z 24008KT 14/02 A2978 RMK A01 T01400019  RH  044%=      5-min Rain = 0
KTA1 171658Z 23008KT 14/02 A2978 RMK A01 T01410024  RH  045%=      5-min Rain = 0
KTA1 171659Z 22008KT 14/03 A2978 RMK A01 T01420026  RH  045%=      5-min Rain = 0
KTA1 171700Z 22011KT 14/02 A2978 RMK A01 T01440023  RH  044%=      5-min Rain = 0
KTA1 171701Z 22009KT 15/02 A2978 RMK A01 T01450020  RH  043%=      5-min Rain = 0
KTA1 171702Z 22010KT 15/02 A2978 RMK A01 T01450023  RH  044%=      5-min Rain = 0
KTA1 171703Z 23008KT 15/02 A2978 RMK A01 T01450021  RH  043%=      5-min Rain = 0
KTA1 171704Z 24010KT 15/02 A2978 RMK A01 T01450021  RH  043%=      5-min Rain = 0
KTA1 171705Z 23012KT 15/02 A2978 RMK A01 T01450018  RH  042%=      5-min Rain = 0
KTA1 171706Z 24011KT 15/02 A2978 RMK A01 T01450016  RH  042%=      5-min Rain = 0
KTA1 171707Z 24011KT 15/02 A2978 RMK A01 T01460019  RH  042%=      5-min Rain = 0
KTA1 171708Z 24011KT 15/02 A2977 RMK A01 T01460020  RH  042%=      5-min Rain = 0
KTA1 171709Z 23010KT 15/02 A2977 RMK A01 T01470019  RH  042%=      5-min Rain = 0
KTA1 171710Z 23009KT 15/02 A2977 RMK A01 T01480022  RH  043%=      5-min Rain = 0
KTA1 171711Z 24009KT 15/02 A2977 RMK A01 T01490017  RH  041%=      5-min Rain = 0
KTA1 171712Z 23009KT 15/02 A2977 RMK A01 T01490019  RH  042%=      5-min Rain = 0
KTA1 171713Z 23009KT 15/02 A2977 RMK A01 T01490015  RH  040%=      5-min Rain = 0
KTA1 171714Z 23009KT 15/01 A2977 RMK A01 T01490012  RH  040%=      5-min Rain = 0
KTA1 171715Z 22010KT 15/02 A2977 RMK A01 T01480018  RH  041%=      5-min Rain = 0
KTA1 171716Z 22009KT 15/02 A2977 RMK A01 T01490020  RH  042%=      5-min Rain = 0
KTA1 171717Z 22007KT 15/02 A2977 RMK A01 T01490017  RH  041%=      5-min Rain = 0
KTA1 171718Z 22009KT 15/02 A2977 RMK A01 T01490023  RH  042%=      5-min Rain = 0
KTA1 171719Z 22009KT 15/03 A2977 RMK A01 T01510025  RH  043%=      5-min Rain = 0
KTA1 171720Z 23008KT 15/03 A2977 RMK A01 T01530025  RH  042%=      5-min Rain = 0
KTA1 171721Z 22012KT 15/02 A2977 RMK A01 T01540020  RH  040%=      5-min Rain = 0
KTA1 171722Z 22010KT 15/02 A2977 RMK A01 T01530018  RH  040%=      5-min Rain = 0
KTA1 171723Z 22012KT 15/02 A2977 RMK A01 T01530017  RH  040%=      5-min Rain = 0
KTA1 171724Z 23010KT 15/02 A2977 RMK A01 T01520016  RH  040%=      5-min Rain = 0
KTA1 171725Z 23009KT 15/02 A2977 RMK A01 T01520017  RH  040%=      5-min Rain = 0
KTA1 171726Z 24009KT 15/02 A2977 RMK A01 T01530018  RH  040%=      5-min Rain = 0
KTA1 171727Z 25009KT 16/02 A2977 RMK A01 T01550019  RH  040%=      5-min Rain = 0
KTA1 171728Z 24008KT 16/02 A2977 RMK A01 T01550017  RH  039%=      5-min Rain = 0
KTA1 171729Z 24010KT 16/02 A2977 RMK A01 T01550017  RH  039%=      5-min Rain = 0
KTA1 171730Z 22009KT 16/02 A2977 RMK A01 T01560018  RH  039%=      5-min Rain = 0
KTA1 171731Z 23009KT 16/02 A2977 RMK A01 T01570019  RH  039%=      5-min Rain = 0
KTA1 171732Z 23009KT 16/02 A2977 RMK A01 T01570021  RH  040%=      5-min Rain = 0
KTA1 171733Z 24011KT 16/02 A2977 RMK A01 T01590022  RH  040%=      5-min Rain = 0
KTA1 171734Z 25010KT 16/02 A2977 RMK A01 T01600020  RH  039%=      5-min Rain = 0
KTA1 171735Z 24009KT 16/02 A2977 RMK A01 T01590016  RH  038%=      5-min Rain = 0
KTA1 171736Z 23010KT 16/02 A2977 RMK A01 T01590021  RH  039%=      5-min Rain = 0
KTA1 171737Z 23009KT 16/02 A2977 RMK A01 T01600017  RH  038%=      5-min Rain = 0
KTA1 171738Z 23007KT 16/02 A2977 RMK A01 T01620017  RH  038%=      5-min Rain = 0
KTA1 171739Z 23007KT 16/02 A2977 RMK A01 T01620022  RH  039%=      5-min Rain = 0
KTA1 171740Z 22007KT 16/02 A2976 RMK A01 T01640023  RH  039%=      5-min Rain = 0
KTA1 171741Z 24008KT 17/02 A2976 RMK A01 T01650024  RH  039%=      5-min Rain = 0
KTA1 171742Z 23008KT 17/02 A2976 RMK A01 T01670023  RH  038%=      5-min Rain = 0
KTA1 171743Z 24008KT 17/02 A2976 RMK A01 T01670020  RH  037%=      5-min Rain = 0
KTA1 171744Z 24009KT 17/02 A2976 RMK A01 T01660015  RH  036%=      5-min Rain = 0
KTA1 171745Z 24010KT 17/02 A2976 RMK A01 T01650015  RH  036%=      5-min Rain = 0
KTA1 171746Z 24007KT 17/02 A2976 RMK A01 T01650015  RH  036%=      5-min Rain = 0
KTA1 171747Z 23008KT 17/02 A2976 RMK A01 T01660018  RH  037%=      5-min Rain = 0
KTA1 171748Z 23009KT 17/01 A2976 RMK A01 T01670012  RH  035%=      5-min Rain = 0
KTA1 171749Z 23007KT 17/02 A2976 RMK A01 T01670015  RH  036%=      5-min Rain = 0
KTA1 171750Z 22008G13KT 17/01 A2976 RMK A01 T01680014  RH  035%=      5-min Rain = 0
KTA1 171751Z 23010KT 17/01 A2976 RMK A01 T01690013  RH  035%=      5-min Rain = 0
KTA1 171752Z 24009KT 17/01 A2976 RMK A01 T01700013  RH  035%=      5-min Rain = 0
KTA1 171753Z 23009KT 17/02 A2976 RMK A01 T01700016  RH  035%=      5-min Rain = 0
KTA1 171754Z 24009KT 17/01 A2976 RMK A01 T01710012  RH  034%=      5-min Rain = 0
KTA1 171755Z 23008KT 17/01 A2976 RMK A01 T01710014  RH  035%=      5-min Rain = 0
KTA1 171756Z 22009KT 17/01 A2976 RMK A01 T01710014  RH  035%=      5-min Rain = 0
KTA1 171757Z 22010KT 17/02 A2976 RMK A01 T01710017  RH  035%=      5-min Rain = 0
KTA1 171758Z 22010KT 17/02 A2976 RMK A01 T01730018  RH  035%=      5-min Rain = 0
KTA1 171759Z 22010KT 17/02 A2976 RMK A01 T01740016  RH  035%=      5-min Rain = 0
KTA1 171800Z 21008KT 17/01 A2976 RMK A01 T01730014  RH  034%=      5-min Rain = 0
KTA1 171801Z 21011KT 17/01 A2976 RMK A01 T01730013  RH  034%=      5-min Rain = 0
KTA1 171802Z 21009KT 17/01 A2976 RMK A01 T01730012  RH  034%=      5-min Rain = 0
KTA1 171803Z 21010KT 17/02 A2976 RMK A01 T01740016  RH  035%=      5-min Rain = 0
KTA1 171804Z 21009KT 18/01 A2976 RMK A01 T01750014  RH  034%=      5-min Rain = 0
KTA1 171805Z 21010KT 18/02 A2976 RMK A01 T01750015  RH  034%=      5-min Rain = 0
KTA1 171806Z 21011KT 18/02 A2976 RMK A01 T01760017  RH  034%=      5-min Rain = 0
KTA1 171807Z 22010KT 18/01 A2976 RMK A01 T01760014  RH  033%=      5-min Rain = 0
KTA1 171808Z 22009KT 18/01 A2976 RMK A01 T01770013  RH  033%=      5-min Rain = 0
KTA1 171809Z 22009KT 18/01 A2976 RMK A01 T01760013  RH  033%=      5-min Rain = 0
KTA1 171810Z 23008KT 18/01 A2976 RMK A01 T01760014  RH  034%=      5-min Rain = 0
KTA1 171811Z 22007KT 18/02 A2976 RMK A01 T01780019  RH  035%=      5-min Rain = 0
KTA1 171812Z 23011KT 18/01 A2975 RMK A01 T01800013  RH  033%=      5-min Rain = 0
KTA1 171813Z 23010KT 18/01 A2975 RMK A01 T01800007  RH  031%=      5-min Rain = 0
KTA1 171814Z 23010KT 18/01 A2975 RMK A01 T01800008  RH  031%=      5-min Rain = 0
KTA1 171815Z 23012KT 18/01 A2975 RMK A01 T01800007  RH  031%=      5-min Rain = 0
KTA1 171816Z 23008KT 18/01 A2975 RMK A01 T01800010  RH  032%=      5-min Rain = 0
KTA1 171817Z 24009KT 18/01 A2975 RMK A01 T01820014  RH  032%=      5-min Rain = 0
KTA1 171818Z 23011KT 18/01 A2975 RMK A01 T01830010  RH  031%=      5-min Rain = 0
KTA1 171819Z 24012KT 18/01 A2975 RMK A01 T01830009  RH  031%=      5-min Rain = 0
KTA1 171820Z 23013KT 18/01 A2975 RMK A01 T01840007  RH  030%=      5-min Rain = 0
KTA1 171821Z 24011KT 18/00 A2975 RMK A01 T01830004  RH  030%=      5-min Rain = 0
KTA1 171822Z 24009KT 18/01 A2975 RMK A01 T01830008  RH  031%=      5-min Rain = 0
KTA1 171823Z 23009KT 18/01 A2975 RMK A01 T01840012  RH  032%=      5-min Rain = 0
KTA1 171824Z 21010KT 19/01 A2975 RMK A01 T01850009  RH  031%=      5-min Rain = 0
KTA1 171825Z 21012G17KT 19/01 A2975 RMK A01 T01850005  RH  030%=      5-min Rain = 0
KTA1 171826Z 24013G18KT 19/01 A2975 RMK A01 T01860005  RH  030%=      5-min Rain = 0
KTA1 171827Z 24011KT 19/00 A2975 RMK A01 T018600-0  RH  029%=      5-min Rain = 0
KTA1 171828Z 25013KT 19/00 A2975 RMK A01 T01850003  RH  029%=      5-min Rain = 0
KTA1 171829Z 24013KT 19/00 A2975 RMK A01 T01850001  RH  029%=      5-min Rain = 0
KTA1 171830Z 24013KT 19/00 A2975 RMK A01 T01860003  RH  029%=      5-min Rain = 0
KTA1 171831Z 24009KT 19/00 A2975 RMK A01 T01860001  RH  029%=      5-min Rain = 0
KTA1 171832Z 25011KT 19/00 A2975 RMK A01 T01860002  RH  029%=      5-min Rain = 0
KTA1 171833Z 24012KT 19/01 A2975 RMK A01 T01860005  RH  030%=      5-min Rain = 0
KTA1 171834Z 24010KT 19/01 A2975 RMK A01 T01870007  RH  030%=      5-min Rain = 0
KTA1 171835Z 22010KT 19/00 A2975 RMK A01 T01870003  RH  029%=      5-min Rain = 0
KTA1 171836Z 23010KT 19/00 A2975 RMK A01 T01880003  RH  029%=      5-min Rain = 0
KTA1 171837Z 24012KT 19/00 A2974 RMK A01 T01880003  RH  029%=      5-min Rain = 0
KTA1 171838Z 23013KT 19/00 A2974 RMK A01 T01870000  RH  028%=      5-min Rain = 0
KTA1 171839Z 24013KT 19/01 A2974 RMK A01 T01880007  RH  030%=      5-min Rain = 0
KTA1 171840Z 24010KT 19/00 A2974 RMK A01 T01890003  RH  029%=      5-min Rain = 0
KTA1 171841Z 23009KT 19/M00 A2974 RMK A01 T01881001  RH  028%=      5-min Rain = 0
KTA1 171842Z 21010KT 19/01 A2974 RMK A01 T01880005  RH  029%=      5-min Rain = 0
KTA1 171843Z 23011G17KT 19/00 A2974 RMK A01 T01890001  RH  028%=      5-min Rain = 0
KTA1 171844Z 23011KT 19/00 A2974 RMK A01 T01890001  RH  028%=      5-min Rain = 0
KTA1 171845Z 22012KT 19/01 A2974 RMK A01 T01890005  RH  029%=      5-min Rain = 0
KTA1 171846Z 22011KT 19/00 A2974 RMK A01 T01890000  RH  028%=      5-min Rain = 0
KTA1 171847Z 23012KT 19/00 A2974 RMK A01 T01890002  RH  028%=      5-min Rain = 0
KTA1 171848Z 23011KT 19/00 A2974 RMK A01 T01900004  RH  029%=      5-min Rain = 0
KTA1 171849Z 23009KT 19/00 A2974 RMK A01 T01900001  RH  028%=      5-min Rain = 0
KTA1 171850Z 23012KT 19/00 A2974 RMK A01 T01900002  RH  028%=      5-min Rain = 0
KTA1 171851Z 23015G20KT 19/00 A2973 RMK A01 T01900001  RH  028%=      5-min Rain = 0
KTA1 171852Z 23016KT 19/M00 A2973 RMK A01 T01901002  RH  028%=      5-min Rain = 0
KTA1 171853Z 24014KT 19/M00 A2973 RMK A01 T01891003  RH  027%=      5-min Rain = 0
KTA1 171854Z 24011KT 19/M00 A2973 RMK A01 T01881002  RH  028%=      5-min Rain = 0
KTA1 171855Z 25012KT 19/00 A2973 RMK A01 T01890002  RH  028%=      5-min Rain = 0
KTA1 171856Z 24013KT 19/00 A2973 RMK A01 T01900002  RH  028%=      5-min Rain = 0
KTA1 171857Z 21012KT 19/00 A2973 RMK A01 T01900001  RH  028%=      5-min Rain = 0
KTA1 171858Z 23016KT 19/M00 A2973 RMK A01 T01901001  RH  028%=      5-min Rain = 0
KTA1 171859Z 23016KT 19/M00 A2973 RMK A01 T01901003  RH  027%=      5-min Rain = 0
KTA1 171900Z 23014KT 19/M00 A2973 RMK A01 T01901001  RH  028%=      5-min Rain = 0
KTA1 171901Z 24015KT 19/00 A2973 RMK A01 T01910000  RH  028%=      5-min Rain = 0
KTA1 171902Z 25013KT 19/M00 A2973 RMK A01 T01911004  RH  027%=      5-min Rain = 0
KTA1 171903Z 22010KT 19/M00 A2973 RMK A01 T01891002  RH  028%=      5-min Rain = 0
KTA1 171904Z 23011KT 19/00 A2973 RMK A01 T01910003  RH  028%=      5-min Rain = 0
KTA1 171905Z 23011KT 19/M00 A2972 RMK A01 T01921001  RH  027%=      5-min Rain = 0
KTA1 171906Z 23010KT 19/00 A2972 RMK A01 T01930002  RH  028%=      5-min Rain = 0
KTA1 171907Z 23012KT 19/M00 A2972 RMK A01 T01921004  RH  027%=      5-min Rain = 0
KTA1 171908Z 22014KT 19/00 A2972 RMK A01 T019200-0  RH  027%=      5-min Rain = 0
KTA1 171909Z 22011KT 19/M00 A2972 RMK A01 T01921002  RH  027%=      5-min Rain = 0
KTA1 171910Z 22016KT 19/00 A2972 RMK A01 T019200-0  RH  027%=      5-min Rain = 0
KTA1 171911Z 23013KT 19/00 A2972 RMK A01 T01930002  RH  028%=      5-min Rain = 0
KTA1 171912Z 22009KT 19/00 A2972 RMK A01 T01940002  RH  028%=      5-min Rain = 0
KTA1 171913Z 24013KT 20/01 A2972 RMK A01 T01950008  RH  029%=      5-min Rain = 0
KTA1 171914Z 25014KT 20/00 A2972 RMK A01 T01960003  RH  027%=      5-min Rain = 0
KTA1 171915Z 24013KT 20/00 A2972 RMK A01 T01960002  RH  027%=      5-min Rain = 0
KTA1 171916Z 24011KT 20/00 A2972 RMK A01 T01950001  RH  027%=      5-min Rain = 0
KTA1 171917Z 25013KT 20/00 A2972 RMK A01 T01950003  RH  028%=      5-min Rain = 0
KTA1 171918Z 25014KT 20/M00 A2971 RMK A01 T01951001  RH  027%=      5-min Rain = 0
KTA1 171919Z 25012KT 19/M00 A2971 RMK A01 T01931001  RH  027%=      5-min Rain = 0
KTA1 171920Z 25010KT 19/M00 A2971 RMK A01 T01931003  RH  027%=      5-min Rain = 0
KTA1 171921Z 22009KT 19/00 A2971 RMK A01 T01930004  RH  028%=      5-min Rain = 0
KTA1 171922Z 22009KT 20/00 A2971 RMK A01 T01950002  RH  027%=      5-min Rain = 0
KTA1 171923Z 22010KT 20/00 A2971 RMK A01 T01950001  RH  027%=      5-min Rain = 0
KTA1 171924Z 24010KT 20/01 A2971 RMK A01 T01960005  RH  028%=      5-min Rain = 0
KTA1 171925Z 23009KT 20/01 A2971 RMK A01 T01980008  RH  028%=      5-min Rain = 0
KTA1 171926Z 24013KT 20/01 A2971 RMK A01 T01990006  RH  028%=      5-min Rain = 0
KTA1 171927Z 24013KT 20/M00 A2971 RMK A01 T01981002  RH  026%=      5-min Rain = 0
KTA1 171928Z 24012KT 20/M00 A2971 RMK A01 T01961002  RH  026%=      5-min Rain = 0
KTA1 171929Z 23011KT 20/00 A2971 RMK A01 T01960003  RH  027%=      5-min Rain = 0
KTA1 171930Z 24013G18KT 20/00 A2971 RMK A01 T01970003  RH  027%=      5-min Rain = 0
KTA1 171931Z 24013KT 20/M00 A2971 RMK A01 T01981002  RH  026%=      5-min Rain = 0
KTA1 171932Z 23014KT 20/M00 A2971 RMK A01 T01971003  RH  026%=      5-min Rain = 0
KTA1 171933Z 24012KT 20/M00 A2971 RMK A01 T01961002  RH  026%=      5-min Rain = 0
KTA1 171934Z 24008KT 20/00 A2971 RMK A01 T01960002  RH  027%=      5-min Rain = 0
KTA1 171935Z 25008KT 20/00 A2971 RMK A01 T01970003  RH  027%=      5-min Rain = 0
KTA1 171936Z 24009KT 20/M00 A2971 RMK A01 T01981001  RH  026%=      5-min Rain = 0
KTA1 171937Z 23012KT 20/M00 A2971 RMK A01 T01971001  RH  026%=      5-min Rain = 0
KTA1 171938Z 22013KT 20/00 A2971 RMK A01 T01980000  RH  027%=      5-min Rain = 0
KTA1 171939Z 23014KT 20/M00 A2971 RMK A01 T01991002  RH  026%=      5-min Rain = 0
KTA1 171940Z 23013KT 20/M00 A2971 RMK A01 T01991003  RH  026%=      5-min Rain = 0
KTA1 171941Z 24011KT 20/00 A2971 RMK A01 T01990001  RH  027%=      5-min Rain = 0
KTA1 171942Z 25011KT 20/00 A2971 RMK A01 T02000001  RH  026%=      5-min Rain = 0
KTA1 171943Z 25012KT 20/M00 A2971 RMK A01 T02001001  RH  026%=      5-min Rain = 0
KTA1 171944Z 24008KT 20/00 A2971 RMK A01 T01990000  RH  026%=      5-min Rain = 0
KTA1 171945Z 25007KT 20/00 A2971 RMK A01 T01990003  RH  027%=      5-min Rain = 0
KTA1 171946Z 25009KT 20/00 A2971 RMK A01 T02000002  RH  027%=      5-min Rain = 0
KTA1 171947Z 24009KT 20/M00 A2971 RMK A01 T02001001  RH  026%=      5-min Rain = 0
KTA1 171948Z 24010KT 20/00 A2971 RMK A01 T01990002  RH  027%=      5-min Rain = 0
KTA1 171949Z 22013KT 20/00 A297 RMK A01 T02000002  RH  027%=      5-min Rain = 0
KTA1 171950Z 22011KT 20/00 A297 RMK A01 T02020004  RH  027%=      5-min Rain = 0
KTA1 171951Z 24010KT 20/00 A297 RMK A01 T02030003  RH  026%=      5-min Rain = 0
KTA1 171952Z 23011KT 20/00 A297 RMK A01 T02030000  RH  026%=      5-min Rain = 0
KTA1 171953Z 24014KT 20/00 A297 RMK A01 T020300-0  RH  026%=      5-min Rain = 0
KTA1 171954Z 24012KT 20/M00 A297 RMK A01 T02031001  RH  025%=      5-min Rain = 0
KTA1 171955Z 24010KT 20/00 A297 RMK A01 T020300-0  RH  026%=      5-min Rain = 0
KTA1 171956Z 22009KT 20/01 A297 RMK A01 T02030006  RH  027%=      5-min Rain = 0
KTA1 171957Z 23011KT 21/00 A297 RMK A01 T02050002  RH  026%=      5-min Rain = 0
KTA1 171958Z 22011KT 21/00 A297 RMK A01 T020500-0  RH  025%=      5-min Rain = 0
KTA1 171959Z 22011KT 20/M00 A297 RMK A01 T02041002  RH  025%=      5-min Rain = 0
KTA1 172000Z 24011KT 20/00 A297 RMK A01 T02040003  RH  026%=      5-min Rain = 0
KTA1 172001Z 22011KT 21/01 A297 RMK A01 T02050005  RH  026%=      5-min Rain = 0
KTA1 172002Z 24012KT 21/01 A297 RMK A01 T02060006  RH  026%=      5-min Rain = 0
KTA1 172003Z 24013KT 21/00 A297 RMK A01 T02080004  RH  026%=      5-min Rain = 0
KTA1 172004Z 22014KT 21/00 A297 RMK A01 T02080003  RH  025%=      5-min Rain = 0
KTA1 172005Z 23012KT 21/00 A297 RMK A01 T02070003  RH  026%=      5-min Rain = 0
KTA1 172006Z 23013KT 21/M00 A297 RMK A01 T02081001  RH  025%=      5-min Rain = 0
KTA1 172007Z 23009KT 21/M01 A297 RMK A01 T02071005  RH  024%=      5-min Rain = 0
KTA1 172008Z 23010KT 21/M01 A297 RMK A01 T02051007  RH  024%=      5-min Rain = 0
KTA1 172009Z 23012KT 20/M00 A297 RMK A01 T02041004  RH  025%=      5-min Rain = 0
KTA1 172010Z 23012KT 21/00 A2969 RMK A01 T020500-0  RH  025%=      5-min Rain = 0
KTA1 172011Z 23010KT 21/M01 A2969 RMK A01 T02061005  RH  024%=      5-min Rain = 0
KTA1 172012Z 24014KT 21/M00 A2969 RMK A01 T02051004  RH  025%=      5-min Rain = 0
KTA1 172013Z 24011KT 20/M01 A2969 RMK A01 T02041007  RH  024%=      5-min Rain = 0
KTA1 172014Z 25011KT 20/M00 A2969 RMK A01 T02041002  RH  025%=      5-min Rain = 0
KTA1 172015Z 22010KT 20/00 A2969 RMK A01 T020400-0  RH  025%=      5-min Rain = 0
KTA1 172016Z 23011KT 21/M01 A2969 RMK A01 T02051005  RH  024%=      5-min Rain = 0
KTA1 172017Z 22011KT 21/M01 A2969 RMK A01 T02051006  RH  024%=      5-min Rain = 0
KTA1 172018Z 23013KT 21/M00 A2969 RMK A01 T02061004  RH  025%=      5-min Rain = 0
KTA1 172019Z 25011KT 21/M01 A2969 RMK A01 T02051005  RH  024%=      5-min Rain = 0
KTA1 172020Z 26007KT 21/M00 A2969 RMK A01 T02051003  RH  025%=      5-min Rain = 0
KTA1 172021Z 25008KT 21/00 A2969 RMK A01 T02060001  RH  025%=      5-min Rain = 0
KTA1 172022Z 22009G14KT 21/M00 A2969 RMK A01 T02071001  RH  025%=      5-min Rain = 0
KTA1 172023Z 21011KT 21/00 A2969 RMK A01 T020800-0  RH  025%=      5-min Rain = 0
KTA1 172024Z 21012KT 21/M01 A2969 RMK A01 T02091005  RH  024%=      5-min Rain = 0
KTA1 172025Z 21011KT 21/M00 A2969 RMK A01 T02091004  RH  024%=      5-min Rain = 0
KTA1 172026Z 21008KT 21/M01 A2969 RMK A01 T02081005  RH  024%=      5-min Rain = 0
KTA1 172027Z 23009KT 21/00 A2969 RMK A01 T02090003  RH  025%=      5-min Rain = 0
KTA1 172028Z 23011KT 21/01 A2968 RMK A01 T02110007  RH  026%=      5-min Rain = 0
KTA1 172029Z 23011KT 21/00 A2968 RMK A01 T02120000  RH  024%=      5-min Rain = 0
KTA1 172030Z 23011KT 21/M01 A2968 RMK A01 T02111005  RH  023%=      5-min Rain = 0
KTA1 172031Z 23009KT 21/M01 A2969 RMK A01 T02091007  RH  024%=      5-min Rain = 0
KTA1 172032Z 24008KT 21/M01 A2968 RMK A01 T02081006  RH  024%=      5-min Rain = 0
KTA1 172033Z 24009KT 21/M01 A2968 RMK A01 T02081007  RH  024%=      5-min Rain = 0
KTA1 172034Z 24010KT 21/M01 A2968 RMK A01 T02071006  RH  024%=      5-min Rain = 0
KTA1 172035Z 22012KT 21/M00 A2968 RMK A01 T02081004  RH  024%=      5-min Rain = 0
KTA1 172036Z 24010KT 21/M01 A2968 RMK A01 T02091009  RH  023%=      5-min Rain = 0
KTA1 172037Z 24009KT 21/M01 A2968 RMK A01 T02091007  RH  024%=      5-min Rain = 0
KTA1 172038Z 24009KT 21/M01 A2968 RMK A01 T02101006  RH  024%=      5-min Rain = 0
KTA1 172039Z 24009KT 21/M01 A2968 RMK A01 T02101009  RH  023%=      5-min Rain = 0
KTA1 172040Z 25011KT 21/M01 A2968 RMK A01 T02101006  RH  024%=      5-min Rain = 0
KTA1 172041Z 25012G17KT 21/M00 A2968 RMK A01 T02111001  RH  024%=      5-min Rain = 0
KTA1 172042Z 22012KT 21/00 A2968 RMK A01 T02120001  RH  024%=      5-min Rain = 0
KTA1 172043Z 22010KT 21/M00 A2968 RMK A01 T02131002  RH  024%=      5-min Rain = 0
KTA1 172044Z 25010KT 21/M00 A2968 RMK A01 T02131003  RH  024%=      5-min Rain = 0
KTA1 172045Z 24007KT 21/M01 A2968 RMK A01 T02121009  RH  023%=      5-min Rain = 0
KTA1 172046Z 23009KT 21/M01 A2968 RMK A01 T02121007  RH  023%=      5-min Rain = 0
KTA1 172047Z 23010KT 21/M01 A2968 RMK A01 T02121008  RH  023%=      5-min Rain = 0
KTA1 172048Z 22009KT 21/M00 A2968 RMK A01 T02121004  RH  024%=      5-min Rain = 0
KTA1 172049Z 23010KT 21/00 A2968 RMK A01 T02140001  RH  024%=      5-min Rain = 0
KTA1 172050Z 25012KT 22/M01 A2968 RMK A01 T02151008  RH  023%=      5-min Rain = 0
KTA1 172051Z 24011KT 21/M01 A2968 RMK A01 T02131009  RH  023%=      5-min Rain = 0
KTA1 172052Z 25012KT 21/M01 A2968 RMK A01 T02121006  RH  023%=      5-min Rain = 0
KTA1 172053Z 24013KT 21/M01 A2968 RMK A01 T02121009  RH  023%=      5-min Rain = 0
KTA1 172054Z 24011KT 21/M01 A2968 RMK A01 T02111011  RH  023%=      5-min Rain = 0
KTA1 172055Z 24009KT 21/M01 A2968 RMK A01 T02111007  RH  023%=      5-min Rain = 0
KTA1 172056Z 23011KT 21/M01 A2968 RMK A01 T02121005  RH  023%=      5-min Rain = 0
KTA1 172057Z 24011KT 21/M01 A2968 RMK A01 T02141007  RH  023%=      5-min Rain = 0
KTA1 172058Z 24012KT 21/M01 A2968 RMK A01 T02141009  RH  022%=      5-min Rain = 0
KTA1 172059Z 25012KT 21/M01 A2968 RMK A01 T02131012  RH  022%=      5-min Rain = 0
KTA1 172100Z 24012KT 21/M00 A2968 RMK A01 T02131001  RH  024%=      5-min Rain = 0
KTA1 172101Z 24013KT 22/M01 A2968 RMK A01 T02151010  RH  022%=      5-min Rain = 0
KTA1 172102Z 25013KT 21/M01 A2968 RMK A01 T02141011  RH  022%=      5-min Rain = 0
KTA1 172103Z 25013KT 21/M01 A2968 RMK A01 T02131009  RH  023%=      5-min Rain = 0
KTA1 172104Z 25012KT 21/M01 A2968 RMK A01 T02131011  RH  022%=      5-min Rain = 0
KTA1 172105Z 24013KT 21/M01 A2968 RMK A01 T02121011  RH  022%=      5-min Rain = 0
KTA1 172106Z 24010KT 21/M01 A2968 RMK A01 T02121013  RH  022%=      5-min Rain = 0
KTA1 172107Z 23011KT 21/M01 A2968 RMK A01 T02111011  RH  022%=      5-min Rain = 0
KTA1 172108Z 23013KT 21/M01 A2967 RMK A01 T02121012  RH  022%=      5-min Rain = 0
KTA1 172109Z 23009KT 21/M01 A2968 RMK A01 T02131014  RH  022%=      5-min Rain = 0
KTA1 172110Z 25013KT 21/M01 A2967 RMK A01 T02131008  RH  023%=      5-min Rain = 0
KTA1 172111Z 26011KT 21/M01 A2967 RMK A01 T02141009  RH  022%=      5-min Rain = 0
KTA1 172112Z 26009KT 21/M01 A2967 RMK A01 T02141008  RH  023%=      5-min Rain = 0
KTA1 172113Z 26009KT 21/M01 A2967 RMK A01 T02141013  RH  022%=      5-min Rain = 0
KTA1 172114Z 26007KT 21/M01 A2967 RMK A01 T02141013  RH  022%=      5-min Rain = 0
KTA1 172115Z 26007KT 21/M01 A2967 RMK A01 T02141008  RH  023%=      5-min Rain = 0
KTA1 172116Z 26009KT 22/M01 A2967 RMK A01 T02161007  RH  023%=      5-min Rain = 0
KTA1 172117Z 26009KT 22/M01 A2967 RMK A01 T02161009  RH  022%=      5-min Rain = 0
KTA1 172118Z 26012KT 22/M01 A2967 RMK A01 T02161005  RH  023%=      5-min Rain = 0
KTA1 172119Z 24014KT 22/M01 A2967 RMK A01 T02161011  RH  022%=      5-min Rain = 0
KTA1 172120Z 25011KT 22/M01 A2967 RMK A01 T02161007  RH  023%=      5-min Rain = 0
KTA1 172121Z 25013KT 22/M01 A2967 RMK A01 T02171009  RH  022%=      5-min Rain = 0
KTA1 172122Z 26011KT 22/M01 A2967 RMK A01 T02171010  RH  022%=      5-min Rain = 0
KTA1 172123Z 25011KT 22/M01 A2967 RMK A01 T02171008  RH  022%=      5-min Rain = 0
KTA1 172124Z 25011KT 22/M01 A2967 RMK A01 T02171010  RH  022%=      5-min Rain = 0
KTA1 172125Z 23011KT 22/M01 A2967 RMK A01 T02181012  RH  021%=      5-min Rain = 0
KTA1 172126Z 23016KT 22/M01 A2967 RMK A01 T02181011  RH  022%=      5-min Rain = 0
KTA1 172127Z 26016KT 22/M01 A2967 RMK A01 T02191010  RH  022%=      5-min Rain = 0
KTA1 172128Z 27011KT 22/M02 A2967 RMK A01 T02191016  RH  021%=      5-min Rain = 0
KTA1 172129Z 25012G18KT 22/M01 A2967 RMK A01 T02181011  RH  022%=      5-min Rain = 0
KTA1 172130Z 24015KT 22/M01 A2967 RMK A01 T02181010  RH  022%=      5-min Rain = 0
KTA1 172131Z 24015KT 22/M01 A2967 RMK A01 T02181007  RH  022%=      5-min Rain = 0
KTA1 172132Z 25013KT 22/M01 A2967 RMK A01 T02181008  RH  022%=      5-min Rain = 0
KTA1 172133Z 26011G16KT 22/M01 A2967 RMK A01 T02181008  RH  022%=      5-min Rain = 0
KTA1 172134Z 26011KT 22/M01 A2967 RMK A01 T02181012  RH  021%=      5-min Rain = 0
KTA1 172135Z 27012KT 22/M01 A2967 RMK A01 T02181011  RH  022%=      5-min Rain = 0
KTA1 172136Z 26011KT 22/M01 A2967 RMK A01 T02181010  RH  022%=      5-min Rain = 0
KTA1 172137Z 23012KT 22/M01 A2967 RMK A01 T02181009  RH  022%=      5-min Rain = 0
KTA1 172138Z 25013KT 22/M01 A2966 RMK A01 T02191007  RH  022%=      5-min Rain = 0
KTA1 172139Z 24014KT 22/M01 A2966 RMK A01 T02201009  RH  022%=      5-min Rain = 0
KTA1 172140Z 25015KT 22/M01 A2967 RMK A01 T02201013  RH  021%=      5-min Rain = 0
KTA1 172141Z 25014KT 22/M02 A2966 RMK A01 T02191017  RH  021%=      5-min Rain = 0
KTA1 172142Z 24012KT 22/M01 A2967 RMK A01 T02181009  RH  022%=      5-min Rain = 0
KTA1 172143Z 24013KT 22/M01 A2966 RMK A01 T02201011  RH  021%=      5-min Rain = 0
KTA1 172144Z 24010KT 22/M01 A2966 RMK A01 T02201013  RH  021%=      5-min Rain = 0
KTA1 172145Z 24009KT 22/M01 A2966 RMK A01 T02201013  RH  021%=      5-min Rain = 0
KTA1 172146Z 25009KT 22/M01 A2966 RMK A01 T02201014  RH  021%=      5-min Rain = 0
KTA1 172147Z 24008KT 22/M01 A2966 RMK A01 T02201012  RH  021%=      5-min Rain = 0
KTA1 172148Z 24008KT 22/M01 A2966 RMK A01 T02201010  RH  022%=      5-min Rain = 0
KTA1 172149Z 25007KT 22/M01 A2966 RMK A01 T02211005  RH  022%=      5-min Rain = 0
KTA1 172150Z 27008KT 22/M01 A2966 RMK A01 T02221009  RH  021%=      5-min Rain = 0
KTA1 172151Z 26008KT 22/M01 A2966 RMK A01 T02221013  RH  021%=      5-min Rain = 0
KTA1 172152Z 26008KT 22/M01 A2966 RMK A01 T02211012  RH  021%=      5-min Rain = 0
KTA1 172153Z 27007KT 22/M01 A2966 RMK A01 T02211014  RH  021%=      5-min Rain = 0
KTA1 172154Z 27007KT 22/M01 A2966 RMK A01 T02201011  RH  021%=      5-min Rain = 0
KTA1 172155Z 27008KT 22/M01 A2966 RMK A01 T02211012  RH  021%=      5-min Rain = 0
KTA1 172156Z 27007KT 22/M01 A2966 RMK A01 T02211011  RH  021%=      5-min Rain = 0
KTA1 172157Z 24012KT 22/M01 A2966 RMK A01 T02221007  RH  022%=      5-min Rain = 0
KTA1 172158Z 24012KT 22/M01 A2966 RMK A01 T02231006  RH  022%=      5-min Rain = 0
KTA1 172159Z 24013KT 22/M00 A2965 RMK A01 T02231003  RH  022%=      5-min Rain = 0
KTA1 172200Z 24016KT 22/M01 A2965 RMK A01 T02241007  RH  021%=      5-min Rain = 0
KTA1 172201Z 24012KT 22/M01 A2966 RMK A01 T02241013  RH  021%=      5-min Rain = 0
KTA1 172202Z 24011KT 22/M01 A2966 RMK A01 T02231014  RH  021%=      5-min Rain = 0
KTA1 172203Z 25011KT 22/M01 A2966 RMK A01 T02221011  RH  021%=      5-min Rain = 0
KTA1 172204Z 25009KT 22/M01 A2966 RMK A01 T02221014  RH  021%=      5-min Rain = 0
KTA1 172205Z 25009KT 22/M01 A2966 RMK A01 T02221014  RH  021%=      5-min Rain = 0
KTA1 172206Z 25009KT 22/M01 A2966 RMK A01 T02221009  RH  021%=      5-min Rain = 0
KTA1 172207Z 25011KT 22/M01 A2965 RMK A01 T02221011  RH  021%=      5-min Rain = 0
KTA1 172208Z 25009KT 22/M01 A2965 RMK A01 T02231011  RH  021%=      5-min Rain = 0
KTA1 172209Z 23010KT 22/M00 A2965 RMK A01 T02241004  RH  022%=      5-min Rain = 0
KTA1 172210Z 24010KT 23/M01 A2965 RMK A01 T02251007  RH  021%=      5-min Rain = 0
KTA1 172211Z 25011KT 23/M01 A2965 RMK A01 T02251007  RH  021%=      5-min Rain = 0
KTA1 172212Z 25011KT 23/M01 A2965 RMK A01 T02251008  RH  021%=      5-min Rain = 0
KTA1 172213Z 26011KT 23/M01 A2965 RMK A01 T02251009  RH  021%=      5-min Rain = 0
KTA1 172214Z 25011KT 23/M01 A2965 RMK A01 T02261012  RH  021%=      5-min Rain = 0
KTA1 172215Z 24009KT 23/M01 A2965 RMK A01 T02261008  RH  021%=      5-min Rain = 0
KTA1 172216Z 24011KT 23/M01 A2965 RMK A01 T02261010  RH  021%=      5-min Rain = 0
KTA1 172217Z 24011KT 23/M01 A2965 RMK A01 T02261013  RH  020%=      5-min Rain = 0
KTA1 172218Z 24010KT 23/M01 A2965 RMK A01 T02261012  RH  020%=      5-min Rain = 0
KTA1 172219Z 25008KT 23/M01 A2965 RMK A01 T02251012  RH  021%=      5-min Rain = 0
KTA1 172220Z 23010KT 23/M01 A2965 RMK A01 T02251008  RH  021%=      5-min Rain = 0
KTA1 172221Z 25013G18KT 23/M01 A2965 RMK A01 T02271007  RH  021%=      5-min Rain = 0
KTA1 172222Z 26013KT 23/M03 A2965 RMK A01 T02281025  RH  018%=      5-min Rain = 0
KTA1 172223Z 25017KT 23/M03 A2965 RMK A01 T02281025  RH  018%=      5-min Rain = 0
KTA1 172224Z 25015G20KT 23/M03 A2965 RMK A01 T02281029  RH  018%=      5-min Rain = 0
KTA1 172225Z 25015KT 23/M03 A2965 RMK A01 T02271031  RH  018%=      5-min Rain = 0
KTA1 172226Z 26013KT 23/M03 A2965 RMK A01 T02271029  RH  018%=      5-min Rain = 0
KTA1 172227Z 26012KT 23/M02 A2965 RMK A01 T02271023  RH  019%=      5-min Rain = 0
KTA1 172228Z 27012KT 23/M02 A2965 RMK A01 T02281023  RH  019%=      5-min Rain = 0
KTA1 172229Z 26013KT 23/M03 A2965 RMK A01 T02291030  RH  018%=      5-min Rain = 0
KTA1 172230Z 27013KT 23/M03 A2965 RMK A01 T02281033  RH  017%=      5-min Rain = 0
KTA1 172231Z 27012KT 23/M03 A2965 RMK A01 T02281029  RH  018%=      5-min Rain = 0
KTA1 172232Z 26011KT 23/M03 A2965 RMK A01 T02281031  RH  018%=      5-min Rain = 0
KTA1 172233Z 26012KT 23/M03 A2965 RMK A01 T02281029  RH  018%=      5-min Rain = 0
KTA1 172234Z 27015KT 23/M03 A2965 RMK A01 T02281032  RH  017%=      5-min Rain = 0
KTA1 172235Z 27013KT 23/M03 A2965 RMK A01 T02281030  RH  018%=      5-min Rain = 0
KTA1 172236Z 26013KT 23/M03 A2965 RMK A01 T02281029  RH  018%=      5-min Rain = 0
KTA1 172237Z 26012KT 23/M03 A2965 RMK A01 T02281029  RH  018%=      5-min Rain = 0
KTA1 172238Z 25012KT 23/M03 A2965 RMK A01 T02271028  RH  018%=      5-min Rain = 0
KTA1 172239Z 26014KT 23/M03 A2965 RMK A01 T02261028  RH  018%=      5-min Rain = 0
KTA1 172240Z 26016KT 23/M03 A2965 RMK A01 T02251033  RH  018%=      5-min Rain = 0
KTA1 172241Z 26014KT 23/M04 A2965 RMK A01 T02251036  RH  017%=      5-min Rain = 0
KTA1 172242Z 26011KT 23/M03 A2965 RMK A01 T02251032  RH  018%=      5-min Rain = 0
KTA1 172243Z 26011KT 23/M03 A2965 RMK A01 T02261027  RH  018%=      5-min Rain = 0
KTA1 172244Z 27011KT 23/M03 A2965 RMK A01 T02261026  RH  018%=      5-min Rain = 0
KTA1 172245Z 28014KT 23/M03 A2965 RMK A01 T02261028  RH  018%=      5-min Rain = 0
KTA1 172246Z 28014KT 23/M03 A2965 RMK A01 T02261033  RH  017%=      5-min Rain = 0
KTA1 172247Z 28014KT 23/M03 A2965 RMK A01 T02261033  RH  018%=      5-min Rain = 0
KTA1 172248Z 29014KT 23/M03 A2965 RMK A01 T02251033  RH  018%=      5-min Rain = 0
KTA1 172249Z 28015KT 23/M03 A2965 RMK A01 T02251033  RH  018%=      5-min Rain = 0
KTA1 172250Z 28012KT 23/M03 A2965 RMK A01 T02251032  RH  018%=      5-min Rain = 0
KTA1 172251Z 27013KT 23/M03 A2965 RMK A01 T02251033  RH  018%=      5-min Rain = 0
KTA1 172252Z 28010KT 23/M03 A2965 RMK A01 T02251034  RH  018%=      5-min Rain = 0
KTA1 172253Z 28012KT 23/M03 A2965 RMK A01 T02261029  RH  018%=      5-min Rain = 0
KTA1 172254Z 27011G16KT 23/M03 A2965 RMK A01 T02261029  RH  018%=      5-min Rain = 0
KTA1 172255Z 28013KT 23/M03 A2965 RMK A01 T02261033  RH  017%=      5-min Rain = 0
KTA1 172256Z 28010KT 23/M03 A2965 RMK A01 T02251031  RH  018%=      5-min Rain = 0
KTA1 172257Z 28012KT 23/M03 A2965 RMK A01 T02251029  RH  018%=      5-min Rain = 0
KTA1 172258Z 27011KT 23/M03 A2965 RMK A01 T02261031  RH  018%=      5-min Rain = 0
KTA1 172259Z 27013KT 23/M04 A2965 RMK A01 T02261036  RH  017%=      5-min Rain = 0
KTA1 172300Z 28011KT 23/M04 A2965 RMK A01 T02261036  RH  017%=      5-min Rain = 0
KTA1 172301Z 28011KT 23/M03 A2965 RMK A01 T02261034  RH  017%=      5-min Rain = 0
KTA1 172302Z 27008KT 23/M03 A2965 RMK A01 T02261032  RH  018%=      5-min Rain = 0
KTA1 172303Z 27009KT 23/M03 A2965 RMK A01 T02261027  RH  018%=      5-min Rain = 0
KTA1 172304Z 27012KT 23/M03 A2965 RMK A01 T02271025  RH  018%=      5-min Rain = 0
KTA1 172305Z 26010KT 23/M02 A2965 RMK A01 T02281021  RH  019%=      5-min Rain = 0
KTA1 172306Z 26009KT 23/M02 A2965 RMK A01 T02281017  RH  019%=      5-min Rain = 0
KTA1 172307Z 27010KT 23/M02 A2965 RMK A01 T02281022  RH  019%=      5-min Rain = 0
KTA1 172308Z 27009KT 23/M03 A2965 RMK A01 T02291027  RH  018%=      5-min Rain = 0
KTA1 172309Z 27010KT 23/M03 A2965 RMK A01 T02291026  RH  018%=      5-min Rain = 0
KTA1 172310Z 27011KT 23/M03 A2965 RMK A01 T02281029  RH  018%=      5-min Rain = 0
KTA1 172311Z 26010KT 23/M02 A2965 RMK A01 T02281023  RH  019%=      5-min Rain = 0
KTA1 172312Z 25011KT 23/M02 A2965 RMK A01 T02281020  RH  019%=      5-min Rain = 0
KTA1 172313Z 25013KT 23/M02 A2965 RMK A01 T02281017  RH  020%=      5-min Rain = 0
KTA1 172314Z 25014KT 23/M02 A2965 RMK A01 T02281021  RH  019%=      5-min Rain = 0
KTA1 172315Z 25013KT 23/M02 A2965 RMK A01 T02271023  RH  019%=      5-min Rain = 0
KTA1 172316Z 25014KT 23/M02 A2965 RMK A01 T02271024  RH  019%=      5-min Rain = 0
KTA1 172317Z 25014KT 23/M02 A2965 RMK A01 T02271023  RH  019%=      5-min Rain = 0
KTA1 172318Z 25013KT 23/M02 A2965 RMK A01 T02261023  RH  019%=      5-min Rain = 0
KTA1 172319Z 25013KT 23/M02 A2965 RMK A01 T02261021  RH  019%=      5-min Rain = 0
KTA1 172320Z 26012KT 23/M02 A2965 RMK A01 T02261021  RH  019%=      5-min Rain = 0
KTA1 172321Z 26012KT 23/M02 A2965 RMK A01 T02251021  RH  019%=      5-min Rain = 0
KTA1 172322Z 26013KT 22/M02 A2965 RMK A01 T02241024  RH  019%=      5-min Rain = 0
KTA1 172323Z 26011KT 22/M02 A2965 RMK A01 T02231024  RH  019%=      5-min Rain = 0
KTA1 172324Z 25011KT 22/M02 A2965 RMK A01 T02231020  RH  020%=      5-min Rain = 0
KTA1 172325Z 25013KT 22/M02 A2965 RMK A01 T02231018  RH  020%=      5-min Rain = 0
KTA1 172326Z 25011KT 22/M02 A2965 RMK A01 T02221017  RH  020%=      5-min Rain = 0
KTA1 172327Z 25012KT 22/M02 A2965 RMK A01 T02211016  RH  021%=      5-min Rain = 0
KTA1 172328Z 25011KT 22/M02 A2965 RMK A01 T02201017  RH  021%=      5-min Rain = 0
KTA1 172329Z 25012KT 22/M02 A2965 RMK A01 T02191016  RH  021%=      5-min Rain = 0
KTA1 172330Z 25011KT 22/M02 A2965 RMK A01 T02181016  RH  021%=      5-min Rain = 0
KTA1 172331Z 25011KT 22/M02 A2965 RMK A01 T02181016  RH  021%=      5-min Rain = 0
KTA1 172332Z 25011KT 22/M02 A2965 RMK A01 T02191015  RH  021%=      5-min Rain = 0
KTA1 172333Z 25011KT 22/M01 A2965 RMK A01 T02191012  RH  021%=      5-min Rain = 0
KTA1 172334Z 25014KT 22/M01 A2965 RMK A01 T02191014  RH  021%=      5-min Rain = 0
KTA1 172335Z 25011KT 22/M02 A2965 RMK A01 T02191016  RH  021%=      5-min Rain = 0
KTA1 172336Z 26011KT 22/M01 A2965 RMK A01 T02191014  RH  021%=      5-min Rain = 0
KTA1 172337Z 26012KT 22/M02 A2965 RMK A01 T02191015  RH  021%=      5-min Rain = 0
KTA1 172338Z 26012KT 22/M01 A2965 RMK A01 T02191014  RH  021%=      5-min Rain = 0
KTA1 172339Z 26012KT 22/M01 A2964 RMK A01 T02191014  RH  021%=      5-min Rain = 0
KTA1 172340Z 26012KT 22/M01 A2965 RMK A01 T02191010  RH  022%=      5-min Rain = 0
KTA1 172341Z 25014KT 22/M02 A2964 RMK A01 T02181015  RH  021%=      5-min Rain = 0
KTA1 172342Z 26013KT 22/M02 A2964 RMK A01 T02181015  RH  021%=      5-min Rain = 0
KTA1 172343Z 26013KT 22/M01 A2965 RMK A01 T02161014  RH  021%=      5-min Rain = 0
KTA1 172344Z 26013KT 22/M01 A2965 RMK A01 T02151014  RH  022%=      5-min Rain = 0
KTA1 172345Z 26012KT 21/M01 A2965 RMK A01 T02131013  RH  022%=      5-min Rain = 0
KTA1 172346Z 26012G17KT 21/M01 A2965 RMK A01 T02111011  RH  022%=      5-min Rain = 0
KTA1 172347Z 26012KT 21/M02 A2965 RMK A01 T02101015  RH  022%=      5-min Rain = 0
KTA1 172348Z 25012KT 21/M02 A2965 RMK A01 T02101016  RH  022%=      5-min Rain = 0
KTA1 172349Z 25011KT 21/M02 A2965 RMK A01 T02091016  RH  022%=      5-min Rain = 0
KTA1 172350Z 25011KT 21/M01 A2965 RMK A01 T02071014  RH  023%=      5-min Rain = 0
KTA1 172351Z 25012KT 21/M02 A2965 RMK A01 T02061015  RH  023%=      5-min Rain = 0
KTA1 172352Z 25011KT 21/M01 A2965 RMK A01 T02061014  RH  023%=      5-min Rain = 0
KTA1 172353Z 25012G17KT 21/M01 A2965 RMK A01 T02061014  RH  023%=      5-min Rain = 0
KTA1 172354Z 25012KT 21/M02 A2965 RMK A01 T02061016  RH  023%=      5-min Rain = 0
KTA1 172355Z 25012KT 21/M02 A2965 RMK A01 T02061020  RH  022%=      5-min Rain = 0
KTA1 172356Z 25011KT 21/M02 A2965 RMK A01 T02051019  RH  022%=      5-min Rain = 0
KTA1 172357Z 25011KT 21/M02 A2965 RMK A01 T02051016  RH  022%=      5-min Rain = 0
KTA1 172358Z 25012KT 20/M02 A2965 RMK A01 T02031015  RH  023%=      5-min Rain = 0
KTA1 172359Z 25010KT 20/M02 A2965 RMK A01 T02021016  RH  023%=      5-min Rain = 0
KTA1 180000Z 25011KT 20/M01 A2965 RMK A01 T02011014  RH  023%=      5-min Rain = 0
KTA1 180001Z 26010KT 20/M01 A2965 RMK A01 T02011013  RH  024%=      5-min Rain = 0
KTA1 180002Z 25009KT 20/M01 A2965 RMK A01 T02001011  RH  024%=      5-min Rain = 0
KTA1 180003Z 25009KT 20/M01 A2965 RMK A01 T01991010  RH  025%=      5-min Rain = 0
KTA1 180004Z 25009KT 20/M01 A2965 RMK A01 T01971008  RH  025%=      5-min Rain = 0
KTA1 180005Z 26010KT 20/M01 A2965 RMK A01 T01961008  RH  025%=      5-min Rain = 0
KTA1 180006Z 26009KT 20/M01 A2965 RMK A01 T01961008  RH  025%=      5-min Rain = 0
KTA1 180007Z 26009KT 20/M01 A2965 RMK A01 T01951007  RH  026%=      5-min Rain = 0
KTA1 180008Z 26009KT 19/M01 A2965 RMK A01 T01941006  RH  026%=      5-min Rain = 0
KTA1 180009Z 26008KT 19/M01 A2966 RMK A01 T01931005  RH  026%=      5-min Rain = 0
KTA1 180010Z 26008KT 19/M00 A2966 RMK A01 T01921004  RH  027%=      5-min Rain = 0
KTA1 180011Z 25008KT 19/M00 A2966 RMK A01 T01911003  RH  027%=      5-min Rain = 0
KTA1 180012Z 26008KT 19/M00 A2966 RMK A01 T01901003  RH  027%=      5-min Rain = 0
KTA1 180013Z 26007KT 19/M00 A2966 RMK A01 T01891001  RH  028%=      5-min Rain = 0
KTA1 180014Z 26007KT 19/M00 A2966 RMK A01 T01881001  RH  028%=      5-min Rain = 0
KTA1 180015Z 26007KT 19/M00 A2966 RMK A01 T01871001  RH  028%=      5-min Rain = 0
KTA1 180016Z 26007KT 19/M00 A2966 RMK A01 T01871001  RH  028%=      5-min Rain = 0
KTA1 180017Z 25007KT 19/00 A2966 RMK A01 T01870001  RH  029%=      5-min Rain = 0
KTA1 180018Z 25008KT 19/00 A2966 RMK A01 T01860002  RH  029%=      5-min Rain = 0
KTA1 180019Z 25007KT 19/00 A2966 RMK A01 T01860001  RH  029%=      5-min Rain = 0
KTA1 180020Z 25008KT 19/00 A2966 RMK A01 T01850001  RH  029%=      5-min Rain = 0
KTA1 180021Z 25008KT 19/00 A2966 RMK A01 T018500-0  RH  029%=      5-min Rain = 0
KTA1 180022Z 25007KT 18/00 A2966 RMK A01 T01840001  RH  029%=      5-min Rain = 0
KTA1 180023Z 25008KT 18/00 A2966 RMK A01 T01840001  RH  029%=      5-min Rain = 0
KTA1 180024Z 25007KT 18/00 A2966 RMK A01 T01830002  RH  029%=      5-min Rain = 0
KTA1 180025Z 25008KT 18/00 A2966 RMK A01 T01820003  RH  030%=      5-min Rain = 0
KTA1 180026Z 25007KT 18/00 A2966 RMK A01 T01820003  RH  030%=      5-min Rain = 0
KTA1 180027Z 25008KT 18/00 A2966 RMK A01 T01810004  RH  030%=      5-min Rain = 0
KTA1 180028Z 25007KT 18/01 A2966 RMK A01 T01800005  RH  031%=      5-min Rain = 0
KTA1 180029Z 25008KT 18/01 A2966 RMK A01 T01800005  RH  031%=      5-min Rain = 0
KTA1 180030Z 25007KT 18/01 A2966 RMK A01 T01800007  RH  031%=      5-min Rain = 0
KTA1 180031Z 25007KT 18/01 A2966 RMK A01 T01790008  RH  032%=      5-min Rain = 0
KTA1 180032Z 24007KT 18/01 A2966 RMK A01 T01780009  RH  032%=      5-min Rain = 0
KTA1 180033Z 23006KT 18/01 A2966 RMK A01 T01760011  RH  033%=      5-min Rain = 0
KTA1 180034Z 23007KT 18/01 A2966 RMK A01 T01750007  RH  032%=      5-min Rain = 0
KTA1 180035Z 24007KT 17/01 A2966 RMK A01 T01730006  RH  032%=      5-min Rain = 0
KTA1 180036Z 24007KT 17/01 A2966 RMK A01 T01710006  RH  033%=      5-min Rain = 0
KTA1 180037Z 24007KT 17/01 A2966 RMK A01 T01700010  RH  034%=      5-min Rain = 0
KTA1 180038Z 24007KT 17/01 A2966 RMK A01 T01680011  RH  034%=      5-min Rain = 0
KTA1 180039Z 24008KT 17/01 A2966 RMK A01 T01670012  RH  035%=      5-min Rain = 0
KTA1 180040Z 25008KT 17/01 A2966 RMK A01 T01660012  RH  035%=      5-min Rain = 0
KTA1 180041Z 24007KT 17/01 A2966 RMK A01 T01650014  RH  036%=      5-min Rain = 0
KTA1 180042Z 24007KT 17/02 A2966 RMK A01 T01650016  RH  037%=      5-min Rain = 0
KTA1 180043Z 24007KT 16/02 A2966 RMK A01 T01630017  RH  037%=      5-min Rain = 0
KTA1 180044Z 24007KT 16/02 A2966 RMK A01 T01620017  RH  038%=      5-min Rain = 0
KTA1 180045Z 24007KT 16/02 A2966 RMK A01 T01610018  RH  038%=      5-min Rain = 0
KTA1 180046Z 24007KT 16/02 A2966 RMK A01 T01600017  RH  038%=      5-min Rain = 0
KTA1 180047Z 24007KT 16/02 A2967 RMK A01 T01590017  RH  038%=      5-min Rain = 0
KTA1 180048Z 24007KT 16/02 A2967 RMK A01 T01580017  RH  038%=      5-min Rain = 0
KTA1 180049Z 24008KT 16/02 A2967 RMK A01 T01570019  RH  039%=      5-min Rain = 0
KTA1 180050Z 24008KT 16/02 A2967 RMK A01 T01560019  RH  040%=      5-min Rain = 0
KTA1 180051Z 24008KT 16/02 A2967 RMK A01 T01550020  RH  040%=      5-min Rain = 0
KTA1 180052Z 24008KT 15/02 A2967 RMK A01 T01540020  RH  040%=      5-min Rain = 0
KTA1 180053Z 25008KT 15/02 A2967 RMK A01 T01530019  RH  040%=      5-min Rain = 0
KTA1 180054Z 25008KT 15/02 A2967 RMK A01 T01530020  RH  040%=      5-min Rain = 0
KTA1 180055Z 25008KT 15/02 A2967 RMK A01 T01530018  RH  040%=      5-min Rain = 0
KTA1 180056Z 25008KT 15/02 A2967 RMK A01 T01530018  RH  040%=      5-min Rain = 0
KTA1 180057Z 25008KT 15/02 A2967 RMK A01 T01540017  RH  040%=      5-min Rain = 0
KTA1 180058Z 25008KT 15/02 A2967 RMK A01 T01540015  RH  039%=      5-min Rain = 0
KTA1 180059Z 25008KT 15/02 A2967 RMK A01 T01540015  RH  039%=      5-min Rain = 0
KTA1 180100Z 25008KT 15/02 A2967 RMK A01 T01540015  RH  039%=      5-min Rain = 0
KTA1 180101Z 25008KT 16/02 A2967 RMK A01 T01550015  RH  039%=      5-min Rain = 0
KTA1 180102Z 25007KT 16/01 A2967 RMK A01 T01550014  RH  039%=      5-min Rain = 0
KTA1 180103Z 25007KT 16/02 A2967 RMK A01 T01550016  RH  039%=      5-min Rain = 0
KTA1 180104Z 25007KT 15/02 A2967 RMK A01 T01540019  RH  040%=      5-min Rain = 0
KTA1 180105Z 25006KT 15/02 A2967 RMK A01 T01530021  RH  041%=      5-min Rain = 0
KTA1 180106Z 25007KT 15/02 A2967 RMK A01 T01520021  RH  041%=      5-min Rain = 0
KTA1 180107Z 25007KT 15/02 A2967 RMK A01 T01510021  RH  041%=      5-min Rain = 0
KTA1 180108Z 24007KT 15/02 A2967 RMK A01 T01500020  RH  041%=      5-min Rain = 0
KTA1 180109Z 24007KT 15/02 A2967 RMK A01 T01490021  RH  042%=      5-min Rain = 0
KTA1 180110Z 24007KT 15/02 A2967 RMK A01 T01480020  RH  042%=      5-min Rain = 0
KTA1 180111Z 23007KT 15/02 A2967 RMK A01 T01470019  RH  042%=      5-min Rain = 0
KTA1 180112Z 23007KT 15/02 A2968 RMK A01 T01460019  RH  042%=      5-min Rain = 0
KTA1 180113Z 22007KT 14/02 A2968 RMK A01 T01440020  RH  043%=      5-min Rain = 0
KTA1 180114Z 22008KT 14/02 A2968 RMK A01 T01430021  RH  044%=      5-min Rain = 0
KTA1 180115Z 23009KT 14/02 A2968 RMK A01 T01420020  RH  044%=      5-min Rain = 0
KTA1 180116Z 23009KT 14/02 A2968 RMK A01 T01440019  RH  043%=      5-min Rain = 0
KTA1 180117Z 23009KT 15/02 A2968 RMK A01 T01450018  RH  042%=      5-min Rain = 0
KTA1 180118Z 23008KT 15/02 A2968 RMK A01 T01470019  RH  042%=      5-min Rain = 0
KTA1 180119Z 23009KT 15/02 A2968 RMK A01 T01470018  RH  042%=      5-min Rain = 0
KTA1 180120Z 24009KT 15/02 A2968 RMK A01 T01480017  RH  041%=      5-min Rain = 0
KTA1 180121Z 24009KT 15/02 A2968 RMK A01 T01490015  RH  040%=      5-min Rain = 0
KTA1 180122Z 24008KT 15/02 A2968 RMK A01 T01490016  RH  040%=      5-min Rain = 0
KTA1 180123Z 24008KT 15/02 A2968 RMK A01 T01490017  RH  041%=      5-min Rain = 0
KTA1 180124Z 24008KT 15/02 A2968 RMK A01 T01490017  RH  041%=      5-min Rain = 0
KTA1 180125Z 24008KT 15/02 A2968 RMK A01 T01510016  RH  040%=      5-min Rain = 0
KTA1 180126Z 25008KT 15/02 A2968 RMK A01 T01520015  RH  039%=      5-min Rain = 0
KTA1 180127Z 25008KT 15/02 A2968 RMK A01 T01520016  RH  040%=      5-min Rain = 0
KTA1 180128Z 24008KT 15/02 A2968 RMK A01 T01520017  RH  040%=      5-min Rain = 0
KTA1 180129Z 25008KT 15/02 A2968 RMK A01 T01520017  RH  040%=      5-min Rain = 0
KTA1 180130Z 25008KT 15/02 A2968 RMK A01 T01500018  RH  041%=      5-min Rain = 0
KTA1 180131Z 25007KT 15/02 A2968 RMK A01 T01490019  RH  041%=      5-min Rain = 0
KTA1 180132Z 25007KT 15/02 A2968 RMK A01 T01480020  RH  042%=      5-min Rain = 0
KTA1 180133Z 24007KT 15/02 A2968 RMK A01 T01460022  RH  043%=      5-min Rain = 0
KTA1 180134Z 24007KT 15/02 A2968 RMK A01 T01450022  RH  043%=      5-min Rain = 0
KTA1 180135Z 24007KT 14/02 A2968 RMK A01 T01430023  RH  044%=      5-min Rain = 0
KTA1 180136Z 24006KT 14/02 A2968 RMK A01 T01410023  RH  045%=      5-min Rain = 0
KTA1 180137Z 24006KT 14/02 A2968 RMK A01 T01400024  RH  045%=      5-min Rain = 0
KTA1 180138Z 23006KT 14/02 A2969 RMK A01 T01390023  RH  045%=      5-min Rain = 0
KTA1 180139Z 23007KT 14/02 A2969 RMK A01 T01380022  RH  046%=      5-min Rain = 0
KTA1 180140Z 23007KT 14/02 A2969 RMK A01 T01360023  RH  046%=      5-min Rain = 0
KTA1 180141Z 23007KT 14/02 A2969 RMK A01 T01350024  RH  047%=      5-min Rain = 0
KTA1 180142Z 23007KT 13/03 A2969 RMK A01 T01340025  RH  048%=      5-min Rain = 0
KTA1 180143Z 23007KT 13/03 A2969 RMK A01 T01320025  RH  048%=      5-min Rain = 0
KTA1 180144Z 23007KT 13/03 A2969 RMK A01 T01310025  RH  049%=      5-min Rain = 0
KTA1 180145Z 24007KT 13/03 A2969 RMK A01 T01310026  RH  049%=      5-min Rain = 0
KTA1 180146Z 24007KT 13/03 A2969 RMK A01 T01310025  RH  049%=      5-min Rain = 0
KTA1 180147Z 24007KT 13/03 A2969 RMK A01 T01300025  RH  049%=      5-min Rain = 0
KTA1 180148Z 24007KT 13/03 A2969 RMK A01 T01300026  RH  049%=      5-min Rain = 0
KTA1 180149Z 25007KT 13/03 A2969 RMK A01 T01300028  RH  050%=      5-min Rain = 0
KTA1 180150Z 25007KT 13/03 A2969 RMK A01 T01300029  RH  050%=      5-min Rain = 0
KTA1 180151Z 25007KT 13/03 A2969 RMK A01 T01300029  RH  050%=      5-min Rain = 0
KTA1 180152Z 25007KT 13/03 A2969 RMK A01 T01300028  RH  050%=      5-min Rain = 0
KTA1 180153Z 24007KT 13/03 A2969 RMK A01 T01300028  RH  050%=      5-min Rain = 0
KTA1 180154Z 25007KT 13/03 A2969 RMK A01 T01300028  RH  050%=      5-min Rain = 0
KTA1 180155Z 24007KT 13/03 A2969 RMK A01 T01300028  RH  050%=      5-min Rain = 0
KTA1 180156Z 24007KT 13/03 A2969 RMK A01 T01300027  RH  050%=      5-min Rain = 0
KTA1 180157Z 24007KT 13/03 A2969 RMK A01 T01300026  RH  049%=      5-min Rain = 0
KTA1 180158Z 24007KT 13/03 A2969 RMK A01 T01300025  RH  049%=      5-min Rain = 0
KTA1 180159Z 24007KT 13/03 A2969 RMK A01 T01300026  RH  049%=      5-min Rain = 0
KTA1 180200Z 24007KT 13/03 A2969 RMK A01 T01290026  RH  050%=      5-min Rain = 0
KTA1 180201Z 24007KT 13/03 A2969 RMK A01 T01290027  RH  050%=      5-min Rain = 0
KTA1 180202Z 24007KT 13/03 A2969 RMK A01 T01290026  RH  050%=      5-min Rain = 0
KTA1 180203Z 24007KT 13/03 A2969 RMK A01 T01280027  RH  050%=      5-min Rain = 0
KTA1 180204Z 24007KT 13/03 A2969 RMK A01 T01280027  RH  050%=      5-min Rain = 0
KTA1 180205Z 24006KT 13/03 A2969 RMK A01 T01280026  RH  050%=      5-min Rain = 0
KTA1 180206Z 24006KT 13/03 A2969 RMK A01 T01270027  RH  050%=      5-min Rain = 0
KTA1 180207Z 23006KT 13/03 A2969 RMK A01 T01270028  RH  051%=      5-min Rain = 0
KTA1 180208Z 23006KT 13/03 A2969 RMK A01 T01260028  RH  051%=      5-min Rain = 0
KTA1 180209Z 23005KT 13/03 A2969 RMK A01 T01260028  RH  051%=      5-min Rain = 0
KTA1 180210Z 23006KT 13/03 A2969 RMK A01 T01260028  RH  052%=      5-min Rain = 0
KTA1 180211Z 23006KT 13/03 A2969 RMK A01 T01260029  RH  052%=      5-min Rain = 0
KTA1 180212Z 23006KT 13/03 A2969 RMK A01 T01250030  RH  052%=      5-min Rain = 0
KTA1 180213Z 23006KT 13/03 A2969 RMK A01 T01250029  RH  052%=      5-min Rain = 0
KTA1 180214Z 23006KT 13/03 A2969 RMK A01 T01250030  RH  052%=      5-min Rain = 0
KTA1 180215Z 23006KT 13/03 A2969 RMK A01 T01250030  RH  052%=      5-min Rain = 0
KTA1 180216Z 24006KT 13/03 A2969 RMK A01 T01250029  RH  052%=      5-min Rain = 0
KTA1 180217Z 24005KT 13/03 A2969 RMK A01 T01260029  RH  052%=      5-min Rain = 0
KTA1 180218Z 24005KT 13/03 A2969 RMK A01 T01260030  RH  052%=      5-min Rain = 0
KTA1 180219Z 24005KT 13/03 A2969 RMK A01 T01260030  RH  052%=      5-min Rain = 0
KTA1 180220Z 24006KT 13/03 A2969 RMK A01 T01250030  RH  052%=      5-min Rain = 0
KTA1 180221Z 24006KT 13/03 A2969 RMK A01 T01250030  RH  053%=      5-min Rain = 0
KTA1 180222Z 25006KT 12/03 A2969 RMK A01 T01240030  RH  053%=      5-min Rain = 0
KTA1 180223Z 25006KT 12/03 A2969 RMK A01 T01240031  RH  053%=      5-min Rain = 0
KTA1 180224Z 25006KT 12/03 A2969 RMK A01 T01240032  RH  053%=      5-min Rain = 0
KTA1 180225Z 25006KT 12/03 A2969 RMK A01 T01240033  RH  054%=      5-min Rain = 0
KTA1 180226Z 25006KT 12/03 A2969 RMK A01 T01240033  RH  054%=      5-min Rain = 0
KTA1 180227Z 25006KT 12/03 A2969 RMK A01 T01240033  RH  054%=      5-min Rain = 0
KTA1 180228Z 25006KT 12/03 A2969 RMK A01 T01240032  RH  053%=      5-min Rain = 0
KTA1 180229Z 25006KT 12/03 A2969 RMK A01 T01240032  RH  053%=      5-min Rain = 0
KTA1 180230Z 25006KT 12/03 A297 RMK A01 T01240031  RH  053%=      5-min Rain = 0
KTA1 180231Z 25006KT 12/03 A297 RMK A01 T01240032  RH  054%=      5-min Rain = 0
KTA1 180232Z 25005KT 12/04 A297 RMK A01 T01230035  RH  055%=      5-min Rain = 0
KTA1 180233Z 25006KT 12/04 A297 RMK A01 T01220037  RH  056%=      5-min Rain = 0
KTA1 180234Z 25006KT 12/04 A297 RMK A01 T01210035  RH  056%=      5-min Rain = 0
KTA1 180235Z 25006KT 12/03 A297 RMK A01 T01210033  RH  055%=      5-min Rain = 0
KTA1 180236Z 24006KT 12/03 A297 RMK A01 T01210032  RH  054%=      5-min Rain = 0
KTA1 180237Z 24006KT 12/03 A297 RMK A01 T01200032  RH  055%=      5-min Rain = 0
KTA1 180238Z 24006KT 12/03 A297 RMK A01 T01200032  RH  055%=      5-min Rain = 0
KTA1 180239Z 24006KT 12/03 A297 RMK A01 T01190032  RH  055%=      5-min Rain = 0
KTA1 180240Z 24006KT 12/03 A297 RMK A01 T01190032  RH  055%=      5-min Rain = 0
KTA1 180241Z 24006KT 12/03 A297 RMK A01 T01180032  RH  055%=      5-min Rain = 0
KTA1 180242Z 24006KT 12/03 A297 RMK A01 T01170032  RH  056%=      5-min Rain = 0
KTA1 180243Z 24007KT 12/03 A297 RMK A01 T01160031  RH  056%=      5-min Rain = 0
KTA1 180244Z 24007KT 12/03 A297 RMK A01 T01150031  RH  056%=      5-min Rain = 0
KTA1 180245Z 25007KT 12/03 A297 RMK A01 T01150031  RH  056%=      5-min Rain = 0
KTA1 180246Z 25007KT 12/03 A297 RMK A01 T01150031  RH  056%=      5-min Rain = 0
KTA1 180247Z 25007KT 12/03 A297 RMK A01 T01150031  RH  056%=      5-min Rain = 0
KTA1 180248Z 24007KT 12/03 A297 RMK A01 T01160031  RH  056%=      5-min Rain = 0
KTA1 180249Z 24007KT 12/03 A297 RMK A01 T01160030  RH  056%=      5-min Rain = 0
KTA1 180250Z 24007KT 12/03 A297 RMK A01 T01160030  RH  055%=      5-min Rain = 0
KTA1 180251Z 24007KT 12/03 A297 RMK A01 T01170030  RH  055%=      5-min Rain = 0
KTA1 180252Z 25007KT 12/03 A297 RMK A01 T01170030  RH  055%=      5-min Rain = 0
KTA1 180253Z 25007KT 12/03 A2971 RMK A01 T01170029  RH  055%=      5-min Rain = 0
KTA1 180254Z 25007KT 12/03 A2971 RMK A01 T01170030  RH  055%=      5-min Rain = 0
KTA1 180255Z 25007KT 12/03 A2971 RMK A01 T01180030  RH  055%=      5-min Rain = 0
KTA1 180256Z 25008KT 12/03 A2971 RMK A01 T01180030  RH  055%=      5-min Rain = 0
KTA1 180257Z 25008KT 12/03 A2971 RMK A01 T01180029  RH  054%=      5-min Rain = 0
KTA1 180258Z 25008KT 12/03 A2971 RMK A01 T01190028  RH  054%=      5-min Rain = 0
KTA1 180259Z 24008KT 12/03 A2971 RMK A01 T01200028  RH  053%=      5-min Rain = 0
KTA1 180300Z 24008KT 12/03 A2971 RMK A01 T01210027  RH  053%=      5-min Rain = 0
KTA1 180301Z 24008KT 12/03 A2971 RMK A01 T01220027  RH  052%=      5-min Rain = 0
KTA1 180302Z 23008KT 12/03 A2971 RMK A01 T01220026  RH  052%=      5-min Rain = 0
KTA1 180303Z 23008KT 12/03 A2971 RMK A01 T01220025  RH  051%=      5-min Rain = 0
KTA1 180304Z 24009KT 12/03 A2971 RMK A01 T01210025  RH  052%=      5-min Rain = 0
KTA1 180305Z 25009KT 12/02 A2971 RMK A01 T01210024  RH  052%=      5-min Rain = 0
KTA1 180306Z 25009KT 12/03 A2971 RMK A01 T01210025  RH  052%=      5-min Rain = 0
KTA1 180307Z 26009KT 12/02 A2971 RMK A01 T01230023  RH  050%=      5-min Rain = 0
KTA1 180308Z 26009KT 12/02 A2971 RMK A01 T01240022  RH  050%=      5-min Rain = 0
KTA1 180309Z 26010KT 13/02 A2971 RMK A01 T01250021  RH  049%=      5-min Rain = 0
KTA1 180310Z 26009KT 13/02 A2971 RMK A01 T01260021  RH  049%=      5-min Rain = 0
KTA1 180311Z 26009KT 13/02 A2971 RMK A01 T01270021  RH  049%=      5-min Rain = 0
KTA1 180312Z 26008KT 13/02 A2971 RMK A01 T01270021  RH  048%=      5-min Rain = 0
KTA1 180313Z 26008KT 13/02 A2972 RMK A01 T01270021  RH  048%=      5-min Rain = 0
KTA1 180314Z 26009KT 13/02 A2972 RMK A01 T01270021  RH  049%=      5-min Rain = 0
KTA1 180315Z 26008KT 13/02 A2972 RMK A01 T01260022  RH  049%=      5-min Rain = 0
KTA1 180316Z 26008KT 13/02 A2972 RMK A01 T01250021  RH  049%=      5-min Rain = 0
KTA1 180317Z 26009KT 12/02 A2972 RMK A01 T01240022  RH  050%=      5-min Rain = 0
KTA1 180318Z 26009KT 12/02 A2972 RMK A01 T01230022  RH  050%=      5-min Rain = 0
KTA1 180319Z 26009KT 12/02 A2972 RMK A01 T01220022  RH  050%=      5-min Rain = 0
KTA1 180320Z 26008KT 12/02 A2972 RMK A01 T01210023  RH  051%=      5-min Rain = 0
KTA1 180321Z 26008KT 12/02 A2972 RMK A01 T01210022  RH  051%=      5-min Rain = 0
KTA1 180322Z 26008KT 12/02 A2972 RMK A01 T01210022  RH  051%=      5-min Rain = 0
KTA1 180323Z 26007KT 12/02 A2972 RMK A01 T01200022  RH  051%=      5-min Rain = 0
KTA1 180324Z 26007KT 12/02 A2972 RMK A01 T01200022  RH  051%=      5-min Rain = 0
KTA1 180325Z 26007KT 12/02 A2972 RMK A01 T01190022  RH  051%=      5-min Rain = 0
KTA1 180326Z 26007KT 12/02 A2972 RMK A01 T01190022  RH  052%=      5-min Rain = 0
KTA1 180327Z 26007KT 12/02 A2972 RMK A01 T01180022  RH  052%=      5-min Rain = 0
KTA1 180328Z 26007KT 12/02 A2972 RMK A01 T01180023  RH  052%=      5-min Rain = 0
KTA1 180329Z 26008KT 12/02 A2972 RMK A01 T01170023  RH  052%=      5-min Rain = 0
KTA1 180330Z 26007KT 12/02 A2972 RMK A01 T01160023  RH  053%=      5-min Rain = 0
KTA1 180331Z 25008KT 12/02 A2972 RMK A01 T01150023  RH  053%=      5-min Rain = 0
KTA1 180332Z 25008KT 12/02 A2972 RMK A01 T01150023  RH  053%=      5-min Rain = 0
KTA1 180333Z 25008KT 11/02 A2972 RMK A01 T01140023  RH  053%=      5-min Rain = 0
KTA1 180334Z 25008KT 11/02 A2972 RMK A01 T01140023  RH  054%=      5-min Rain = 0
KTA1 180335Z 25008KT 11/02 A2972 RMK A01 T01130024  RH  054%=      5-min Rain = 0
KTA1 180336Z 24008KT 11/03 A2972 RMK A01 T01120025  RH  055%=      5-min Rain = 0
KTA1 180337Z 24008KT 11/03 A2972 RMK A01 T01110025  RH  056%=      5-min Rain = 0
KTA1 180338Z 25008KT 11/03 A2972 RMK A01 T01100026  RH  056%=      5-min Rain = 0
KTA1 180339Z 25008KT 11/03 A2972 RMK A01 T01100027  RH  056%=      5-min Rain = 0
KTA1 180340Z 25008KT 11/03 A2972 RMK A01 T01090026  RH  057%=      5-min Rain = 0
KTA1 180341Z 26008KT 11/02 A2972 RMK A01 T01090024  RH  056%=      5-min Rain = 0
KTA1 180342Z 26008KT 11/02 A2972 RMK A01 T01090024  RH  056%=      5-min Rain = 0
KTA1 180343Z 26008KT 11/02 A2972 RMK A01 T01090023  RH  055%=      5-min Rain = 0
KTA1 180344Z 26009KT 11/02 A2972 RMK A01 T01090023  RH  055%=      5-min Rain = 0
KTA1 180345Z 25009KT 11/02 A2972 RMK A01 T01090022  RH  055%=      5-min Rain = 0
KTA1 180346Z 25009KT 11/02 A2972 RMK A01 T01090023  RH  055%=      5-min Rain = 0
KTA1 180347Z 25009KT 11/02 A2972 RMK A01 T01090022  RH  055%=      5-min Rain = 0
KTA1 180348Z 25009KT 11/02 A2972 RMK A01 T01090023  RH  055%=      5-min Rain = 0
KTA1 180349Z 25009KT 11/02 A2972 RMK A01 T01090023  RH  056%=      5-min Rain = 0
KTA1 180350Z 25009KT 11/02 A2972 RMK A01 T01080024  RH  056%=      5-min Rain = 0
KTA1 180351Z 25009KT 11/02 A2972 RMK A01 T01070024  RH  057%=      5-min Rain = 0
KTA1 180352Z 24009KT 11/03 A2972 RMK A01 T01060025  RH  057%=      5-min Rain = 0
KTA1 180353Z 24009KT 11/03 A2972 RMK A01 T01060025  RH  057%=      5-min Rain = 0
KTA1 180354Z 24009KT 11/03 A2972 RMK A01 T01060025  RH  057%=      5-min Rain = 0
KTA1 180355Z 23009KT 11/02 A2973 RMK A01 T01060023  RH  057%=      5-min Rain = 0
KTA1 180356Z 23010KT 11/02 A2973 RMK A01 T01060023  RH  056%=      5-min Rain = 0
KTA1 180357Z 23010KT 11/02 A2973 RMK A01 T01050022  RH  056%=      5-min Rain = 0
KTA1 180358Z 23010KT 10/02 A2973 RMK A01 T01040022  RH  057%=      5-min Rain = 0
KTA1 180359Z 23010KT 10/02 A2973 RMK A01 T01020022  RH  058%=      5-min Rain = 0
KTA1 180400Z 23010KT 10/02 A2973 RMK A01 T01010022  RH  058%=      5-min Rain = 0
KTA1 180401Z 23009KT 10/02 A2973 RMK A01 T01010023  RH  058%=      5-min Rain = 0
KTA1 180402Z 23010KT 10/02 A2973 RMK A01 T01010023  RH  058%=      5-min Rain = 0
KTA1 180403Z 23010KT 10/02 A2973 RMK A01 T01010023  RH  058%=      5-min Rain = 0
KTA1 180404Z 23010KT 10/02 A2973 RMK A01 T01010023  RH  058%=      5-min Rain = 0
KTA1 180405Z 23010KT 10/02 A2973 RMK A01 T01010022  RH  058%=      5-min Rain = 0
KTA1 180406Z 24010KT 10/02 A2973 RMK A01 T01020023  RH  058%=      5-min Rain = 0
KTA1 180407Z 24010KT 10/02 A2973 RMK A01 T01020024  RH  058%=      5-min Rain = 0
KTA1 180408Z 23010KT 10/02 A2973 RMK A01 T01020023  RH  058%=      5-min Rain = 0
KTA1 180409Z 23009KT 10/02 A2973 RMK A01 T01020023  RH  058%=      5-min Rain = 0
KTA1 180410Z 24010KT 10/02 A2973 RMK A01 T01020023  RH  058%=      5-min Rain = 0
KTA1 180411Z 24009KT 10/02 A2973 RMK A01 T01020024  RH  058%=      5-min Rain = 0
KTA1 180412Z 24010KT 10/02 A2973 RMK A01 T01020024  RH  058%=      5-min Rain = 0
KTA1 180413Z 24010KT 10/02 A2973 RMK A01 T01010024  RH  058%=      5-min Rain = 0
KTA1 180414Z 24010KT 10/02 A2973 RMK A01 T01010022  RH  058%=      5-min Rain = 0
KTA1 180415Z 25009KT 10/02 A2973 RMK A01 T01010022  RH  058%=      5-min Rain = 0
KTA1 180416Z 25010KT 10/02 A2973 RMK A01 T01020022  RH  058%=      5-min Rain = 0
KTA1 180417Z 25010KT 10/02 A2973 RMK A01 T01020022  RH  057%=      5-min Rain = 0
KTA1 180418Z 25010KT 10/02 A2973 RMK A01 T01030022  RH  057%=      5-min Rain = 0
KTA1 180419Z 25010KT 10/02 A2973 RMK A01 T01020021  RH  057%=      5-min Rain = 0
KTA1 180420Z 25010KT 10/02 A2973 RMK A01 T01030020  RH  057%=      5-min Rain = 0
KTA1 180421Z 25010KT 10/02 A2973 RMK A01 T01030020  RH  056%=      5-min Rain = 0
KTA1 180422Z 25010KT 10/02 A2973 RMK A01 T01030019  RH  056%=      5-min Rain = 0
KTA1 180423Z 25010KT 10/02 A2973 RMK A01 T01030019  RH  056%=      5-min Rain = 0
KTA1 180424Z 25010KT 10/02 A2973 RMK A01 T01030019  RH  056%=      5-min Rain = 0
KTA1 180425Z 25010KT 10/02 A2973 RMK A01 T01040018  RH  055%=      5-min Rain = 0
KTA1 180426Z 25010KT 11/02 A2973 RMK A01 T01050018  RH  055%=      5-min Rain = 0
KTA1 180427Z 25011KT 11/02 A2973 RMK A01 T01060018  RH  055%=      5-min Rain = 0
KTA1 180428Z 25011KT 11/02 A2973 RMK A01 T01060018  RH  054%=      5-min Rain = 0
KTA1 180429Z 26011KT 11/02 A2973 RMK A01 T01060017  RH  054%=      5-min Rain = 0
KTA1 180430Z 25011KT 11/02 A2973 RMK A01 T01060016  RH  054%=      5-min Rain = 0
KTA1 180431Z 25011KT 11/02 A2973 RMK A01 T01060017  RH  054%=      5-min Rain = 0
KTA1 180432Z 25010KT 11/02 A2973 RMK A01 T01060017  RH  054%=      5-min Rain = 0
KTA1 180433Z 25011KT 11/02 A2973 RMK A01 T01050016  RH  054%=      5-min Rain = 0
KTA1 180434Z 25011KT 11/02 A2973 RMK A01 T01050017  RH  054%=      5-min Rain = 0
KTA1 180435Z 25010KT 10/02 A2973 RMK A01 T01040017  RH  055%=      5-min Rain = 0
KTA1 180436Z 25009KT 10/02 A2973 RMK A01 T01040017  RH  055%=      5-min Rain = 0
KTA1 180437Z 25010KT 10/02 A2973 RMK A01 T01030017  RH  055%=      5-min Rain = 0
KTA1 180438Z 24010KT 10/02 A2973 RMK A01 T01030017  RH  055%=      5-min Rain = 0
KTA1 180439Z 24010KT 10/02 A2973 RMK A01 T01040017  RH  055%=      5-min Rain = 0
KTA1 180440Z 24010KT 10/02 A2973 RMK A01 T01030017  RH  055%=      5-min Rain = 0
KTA1 180441Z 24010KT 10/02 A2973 RMK A01 T01030017  RH  055%=      5-min Rain = 0
KTA1 180442Z 24010KT 10/02 A2973 RMK A01 T01020017  RH  055%=      5-min Rain = 0
KTA1 180443Z 24010KT 10/02 A2973 RMK A01 T01020017  RH  055%=      5-min Rain = 0
KTA1 180444Z 24010KT 10/02 A2973 RMK A01 T01020017  RH  055%=      5-min Rain = 0
KTA1 180445Z 25010KT 10/02 A2973 RMK A01 T01020016  RH  055%=      5-min Rain = 0
KTA1 180446Z 25010KT 10/02 A2973 RMK A01 T01020016  RH  055%=      5-min Rain = 0
KTA1 180447Z 25010KT 10/02 A2973 RMK A01 T01020016  RH  055%=      5-min Rain = 0
KTA1 180448Z 25010KT 10/02 A2973 RMK A01 T01010016  RH  055%=      5-min Rain = 0
KTA1 180449Z 25010KT 10/02 A2973 RMK A01 T01010016  RH  056%=      5-min Rain = 0
KTA1 180450Z 25010KT 10/02 A2973 RMK A01 T01000017  RH  056%=      5-min Rain = 0
KTA1 180451Z 25011KT 10/02 A2973 RMK A01 T01000016  RH  056%=      5-min Rain = 0
KTA1 180452Z 25010KT 10/02 A2973 RMK A01 T01000015  RH  055%=      5-min Rain = 0
KTA1 180453Z 25011KT 10/02 A2973 RMK A01 T01010015  RH  055%=      5-min Rain = 0
KTA1 180454Z 25011KT 10/01 A2973 RMK A01 T01010014  RH  055%=      5-min Rain = 0
KTA1 180455Z 25010KT 10/01 A2973 RMK A01 T01020014  RH  054%=      5-min Rain = 0
KTA1 180456Z 25010KT 10/01 A2973 RMK A01 T01030013  RH  054%=      5-min Rain = 0
KTA1 180457Z 25010KT 10/01 A2973 RMK A01 T01030013  RH  054%=      5-min Rain = 0
KTA1 180458Z 25010KT 10/01 A2973 RMK A01 T01030013  RH  054%=      5-min Rain = 0
KTA1 180459Z 25010KT 10/01 A2973 RMK A01 T01030014  RH  054%=      5-min Rain = 0
KTA1 180500Z 25010KT 10/01 A2973 RMK A01 T01020014  RH  054%=      5-min Rain = 0
KTA1 180501Z 25010KT 10/01 A2973 RMK A01 T01020014  RH  055%=      5-min Rain = 0
KTA1 180502Z 25010KT 10/01 A2973 RMK A01 T01010014  RH  055%=      5-min Rain = 0
KTA1 180503Z 24010KT 10/01 A2973 RMK A01 T01010014  RH  055%=      5-min Rain = 0
KTA1 180504Z 24011KT 10/01 A2973 RMK A01 T01010014  RH  055%=      5-min Rain = 0
KTA1 180505Z 24011KT 10/01 A2973 RMK A01 T01010013  RH  055%=      5-min Rain = 0
KTA1 180506Z 24011KT 10/01 A2973 RMK A01 T01000014  RH  055%=      5-min Rain = 0
KTA1 180507Z 24011KT 10/01 A2973 RMK A01 T01000013  RH  055%=      5-min Rain = 0
KTA1 180508Z 24011KT 10/01 A2974 RMK A01 T01000012  RH  054%=      5-min Rain = 0
KTA1 180509Z 24010KT 10/01 A2973 RMK A01 T00990012  RH  055%=      5-min Rain = 0
KTA1 180510Z 23011KT 10/01 A2974 RMK A01 T00980012  RH  055%=      5-min Rain = 0
KTA1 180511Z 23010KT 10/01 A2974 RMK A01 T00970013  RH  056%=      5-min Rain = 0
KTA1 180512Z 23011KT 10/01 A2974 RMK A01 T00950013  RH  056%=      5-min Rain = 0
KTA1 180513Z 23011KT 10/01 A2974 RMK A01 T00950013  RH  056%=      5-min Rain = 0
KTA1 180514Z 24011KT 10/01 A2973 RMK A01 T00950013  RH  057%=      5-min Rain = 0
KTA1 180515Z 24011KT 10/01 A2973 RMK A01 T00950013  RH  057%=      5-min Rain = 0
KTA1 180516Z 24011KT 10/01 A2973 RMK A01 T00950013  RH  057%=      5-min Rain = 0
KTA1 180517Z 24011KT 10/01 A2973 RMK A01 T00950013  RH  057%=      5-min Rain = 0
KTA1 180518Z 24011KT 10/01 A2973 RMK A01 T00950013  RH  056%=      5-min Rain = 0
KTA1 180519Z 24011KT 10/01 A2973 RMK A01 T00950012  RH  056%=      5-min Rain = 0
KTA1 180520Z 24012KT 10/01 A2973 RMK A01 T00950012  RH  056%=      5-min Rain = 0
KTA1 180521Z 24011KT 10/01 A2973 RMK A01 T00950011  RH  056%=      5-min Rain = 0
KTA1 180522Z 25011KT 10/01 A2973 RMK A01 T00960011  RH  056%=      5-min Rain = 0
KTA1 180523Z 24011KT 10/01 A2973 RMK A01 T00960012  RH  056%=      5-min Rain = 0
KTA1 180524Z 24010KT 10/01 A2973 RMK A01 T00960012  RH  056%=      5-min Rain = 0
KTA1 180525Z 24010KT 10/01 A2973 RMK A01 T00960012  RH  056%=      5-min Rain = 0
KTA1 180526Z 24010KT 10/01 A2973 RMK A01 T00960012  RH  056%=      5-min Rain = 0
KTA1 180527Z 24009KT 10/01 A2973 RMK A01 T00950012  RH  056%=      5-min Rain = 0
KTA1 180528Z 24010KT 10/01 A2973 RMK A01 T00950012  RH  056%=      5-min Rain = 0
KTA1 180529Z 24009KT 10/01 A2973 RMK A01 T00950012  RH  056%=      5-min Rain = 0
KTA1 180530Z 24009KT 10/01 A2973 RMK A01 T00950012  RH  056%=      5-min Rain = 0
KTA1 180531Z 24008KT 10/01 A2974 RMK A01 T00950013  RH  057%=      5-min Rain = 0
KTA1 180532Z 24009KT 09/01 A2974 RMK A01 T00940013  RH  057%=      5-min Rain = 0
KTA1 180533Z 24010KT 09/01 A2973 RMK A01 T00940012  RH  057%=      5-min Rain = 0
KTA1 180534Z 24009KT 09/01 A2973 RMK A01 T00930011  RH  056%=      5-min Rain = 0
KTA1 180535Z 24009KT 09/01 A2973 RMK A01 T00940012  RH  057%=      5-min Rain = 0
KTA1 180536Z 24009KT 09/01 A2973 RMK A01 T00930012  RH  057%=      5-min Rain = 0
KTA1 180537Z 24010KT 09/01 A2973 RMK A01 T00930013  RH  057%=      5-min Rain = 0
KTA1 180538Z 24010KT 09/01 A2973 RMK A01 T00920013  RH  057%=      5-min Rain = 0
KTA1 180539Z 24009KT 09/01 A2973 RMK A01 T00920012  RH  057%=      5-min Rain = 0
KTA1 180540Z 24009KT 09/01 A2973 RMK A01 T00920012  RH  057%=      5-min Rain = 0
KTA1 180541Z 24009KT 09/01 A2973 RMK A01 T00920011  RH  057%=      5-min Rain = 0
KTA1 180542Z 24010KT 09/01 A2973 RMK A01 T00930011  RH  056%=      5-min Rain = 0
KTA1 180543Z 24010KT 09/01 A2974 RMK A01 T00940010  RH  056%=      5-min Rain = 0
KTA1 180544Z 24011KT 09/01 A2974 RMK A01 T00940010  RH  055%=      5-min Rain = 0
KTA1 180545Z 25010KT 10/01 A2974 RMK A01 T00950009  RH  055%=      5-min Rain = 0
KTA1 180546Z 24011KT 10/01 A2974 RMK A01 T00950009  RH  055%=      5-min Rain = 0
KTA1 180547Z 24011KT 10/01 A2974 RMK A01 T00960008  RH  054%=      5-min Rain = 0
KTA1 180548Z 25011KT 10/01 A2974 RMK A01 T00970008  RH  054%=      5-min Rain = 0
KTA1 180549Z 25011KT 10/01 A2974 RMK A01 T00970008  RH  054%=      5-min Rain = 0
KTA1 180550Z 25010KT 10/01 A2974 RMK A01 T00980008  RH  053%=      5-min Rain = 0
KTA1 180551Z 24011KT 10/01 A2974 RMK A01 T00980007  RH  053%=      5-min Rain = 0
KTA1 180552Z 24011KT 10/01 A2974 RMK A01 T00990007  RH  053%=      5-min Rain = 0
KTA1 180553Z 24011KT 10/01 A2974 RMK A01 T01000006  RH  052%=      5-min Rain = 0
KTA1 180554Z 24011KT 10/01 A2974 RMK A01 T01000006  RH  052%=      5-min Rain = 0
KTA1 180555Z 24011KT 10/01 A2974 RMK A01 T01010005  RH  051%=      5-min Rain = 0
KTA1 180556Z 24011KT 10/00 A2974 RMK A01 T01010004  RH  051%=      5-min Rain = 0
KTA1 180557Z 25011KT 10/01 A2974 RMK A01 T01020005  RH  051%=      5-min Rain = 0
KTA1 180558Z 25011KT 10/01 A2974 RMK A01 T01010005  RH  051%=      5-min Rain = 0
KTA1 180559Z 25010KT 10/01 A2974 RMK A01 T01010005  RH  051%=      5-min Rain = 0
KTA1 180600Z 24011KT 10/00 A2974 RMK A01 T01010004  RH  051%=      5-min Rain = 0

Page generated in 0.0428 seconds.